Time,TemperatureF,DewpointF,PressureIn,WindDirection,WindDirectionDegrees,WindSpeedMPH,WindSpeedGustMPH,Humidity,HourlyPrecipIn,Conditions,Clouds,dailyrainin,SoftwareType,DateUTC
2013-10-21 00:00:00,45.5,8.9,24.81,NW,324,3.1,4.0,22,0.00,,---,0.00,VWS V14.01,2013-10-21 05:00:00,
2013-10-21 00:01:00,45.5,8.9,24.81,NW,324,4.0,4.0,22,0.00,,---,0.00,VWS V14.01,2013-10-21 05:01:00,
2013-10-21 00:03:00,45.5,8.9,24.81,NW,324,3.6,3.6,22,0.00,,---,0.00,VWS V14.01,2013-10-21 05:03:00,
2013-10-21 00:04:00,45.5,8.9,24.81,NW,324,3.6,3.6,22,0.00,,---,0.00,VWS V14.01,2013-10-21 05:04:00,
2013-10-21 00:05:00,45.5,8.9,24.81,NNW,330,3.6,4.9,22,0.00,,---,0.00,VWS V14.01,2013-10-21 05:05:00,
2013-10-21 00:06:00,45.5,8.9,24.81,NNW,332,3.6,4.0,22,0.00,,---,0.00,VWS V14.01,2013-10-21 05:06:00,
2013-10-21 00:08:00,45.3,8.7,24.81,NNW,332,3.1,3.1,22,0.00,,---,0.00,VWS V14.01,2013-10-21 05:08:00,
2013-10-21 00:09:00,45.1,8.6,24.81,NNW,332,3.1,3.1,22,0.00,,---,0.00,VWS V14.01,2013-10-21 05:09:00,
2013-10-21 00:11:00,45.1,8.6,24.81,NNW,332,2.7,4.0,22,0.00,,---,0.00,VWS V14.01,2013-10-21 05:11:00,
2013-10-21 00:12:00,45.0,8.4,24.81,NNW,333,3.6,3.6,22,0.00,,---,0.00,VWS V14.01,2013-10-21 05:12:00,
2013-10-21 00:13:00,44.8,8.3,24.81,NNW,333,2.7,3.1,22,0.00,,---,0.00,VWS V14.01,2013-10-21 05:13:00,
2013-10-21 00:14:00,44.8,8.3,24.81,NNW,333,3.1,3.1,22,0.00,,---,0.00,VWS V14.01,2013-10-21 05:14:00,
2013-10-21 00:15:00,44.6,8.1,24.81,NNW,333,3.6,3.6,22,0.00,,---,0.00,VWS V14.01,2013-10-21 05:15:00,
2013-10-21 00:16:00,44.4,10.8,24.81,NNW,333,4.0,4.0,25,0.00,,---,0.00,VWS V14.01,2013-10-21 05:16:00,
2013-10-21 00:17:00,44.2,10.7,24.81,NNW,333,4.0,4.0,25,0.00,,---,0.00,VWS V14.01,2013-10-21 05:17:00,
2013-10-21 00:18:00,44.2,10.7,24.81,NNW,333,2.2,4.0,25,0.00,,---,0.00,VWS V14.01,2013-10-21 05:18:00,
2013-10-21 00:19:00,44.1,10.5,24.81,NNW,333,3.1,3.1,25,0.00,,---,0.00,VWS V14.01,2013-10-21 05:19:00,
2013-10-21 00:20:00,43.9,10.4,24.81,NNW,333,4.0,4.0,25,0.00,,---,0.00,VWS V14.01,2013-10-21 05:20:00,
2013-10-21 00:21:00,43.9,10.4,24.81,NNW,333,3.1,3.6,25,0.00,,---,0.00,VWS V14.01,2013-10-21 05:21:00,
2013-10-21 00:22:00,43.9,10.4,24.81,NNW,333,2.7,2.7,25,0.00,,---,0.00,VWS V14.01,2013-10-21 05:22:00,
2013-10-21 00:23:00,43.7,10.2,24.81,NNW,333,0.0,0.0,25,0.00,,---,0.00,VWS V14.01,2013-10-21 05:23:00,
2013-10-21 00:24:00,43.7,10.2,24.81,NNW,333,0.0,0.0,25,0.00,,---,0.00,VWS V14.01,2013-10-21 05:24:00,
2013-10-21 00:25:00,43.7,10.2,24.81,NNW,333,0.0,0.0,25,0.00,,---,0.00,VWS V14.01,2013-10-21 05:25:00,
2013-10-21 00:26:00,43.5,10.0,24.81,NNW,333,0.0,0.0,25,0.00,,---,0.00,VWS V14.01,2013-10-21 05:26:00,
2013-10-21 00:27:00,43.5,10.0,24.81,NNW,333,0.0,0.0,25,0.00,,---,0.00,VWS V14.01,2013-10-21 05:27:00,
2013-10-21 00:28:00,43.5,10.0,24.81,NNW,333,2.2,2.2,25,0.00,,---,0.00,VWS V14.01,2013-10-21 05:28:00,
2013-10-21 00:29:00,43.5,10.0,24.81,NNW,333,3.1,3.1,25,0.00,,---,0.00,VWS V14.01,2013-10-21 05:29:00,
2013-10-21 00:31:00,43.5,10.0,24.81,NNW,333,4.0,4.0,25,0.00,,---,0.00,VWS V14.01,2013-10-21 05:31:00,
2013-10-21 00:32:00,43.5,10.0,24.81,NNW,333,3.6,4.0,25,0.00,,---,0.00,VWS V14.01,2013-10-21 05:32:00,
2013-10-21 00:33:00,43.5,12.6,24.81,NNW,333,3.6,4.0,28,0.00,,---,0.00,VWS V14.01,2013-10-21 05:33:00,
2013-10-21 00:34:00,43.5,12.6,24.81,NNW,333,3.6,4.0,28,0.00,,---,0.00,VWS V14.01,2013-10-21 05:34:00,
2013-10-21 00:36:00,43.7,12.8,24.81,NNW,333,4.0,4.0,28,0.00,,---,0.00,VWS V14.01,2013-10-21 05:36:00,
2013-10-21 00:37:00,43.7,12.8,24.81,NNW,333,2.7,3.6,28,0.00,,---,0.00,VWS V14.01,2013-10-21 05:37:00,
2013-10-21 00:38:00,43.7,12.8,24.81,NNW,333,2.7,4.0,28,0.00,,---,0.00,VWS V14.01,2013-10-21 05:38:00,
2013-10-21 00:39:00,43.7,12.8,24.81,NNW,333,3.1,3.1,28,0.00,,---,0.00,VWS V14.01,2013-10-21 05:39:00,
2013-10-21 00:41:00,43.9,12.9,24.81,NNW,332,2.7,2.7,28,0.00,,---,0.00,VWS V14.01,2013-10-21 05:41:00,
2013-10-21 00:42:00,43.9,12.9,24.81,NNW,333,3.1,3.1,28,0.00,,---,0.00,VWS V14.01,2013-10-21 05:42:00,
2013-10-21 00:43:00,43.9,12.9,24.81,NNW,332,2.7,2.7,28,0.00,,---,0.00,VWS V14.01,2013-10-21 05:43:00,
2013-10-21 00:44:00,43.9,12.9,24.81,NNW,333,2.7,2.7,28,0.00,,---,0.00,VWS V14.01,2013-10-21 05:44:00,
2013-10-21 00:46:00,43.7,12.8,24.81,NNW,333,0.0,0.0,28,0.00,,---,0.00,VWS V14.01,2013-10-21 05:46:00,
2013-10-21 00:47:00,43.7,12.8,24.81,NNW,333,0.0,0.0,28,0.00,,---,0.00,VWS V14.01,2013-10-21 05:47:00,
2013-10-21 00:49:00,43.3,12.4,24.81,NNW,333,0.0,0.0,28,0.00,,---,0.00,VWS V14.01,2013-10-21 05:49:00,
2013-10-21 00:51:00,43.0,12.1,24.81,NNW,333,0.0,0.0,28,0.00,,---,0.00,VWS V14.01,2013-10-21 05:51:00,
2013-10-21 00:52:00,43.0,12.1,24.81,NNW,333,0.0,0.0,28,0.00,,---,0.00,VWS V14.01,2013-10-21 05:52:00,
2013-10-21 00:54:00,42.8,12.0,24.81,NNW,333,0.0,0.0,28,0.00,,---,0.00,VWS V14.01,2013-10-21 05:54:00,
2013-10-21 00:57:00,42.6,11.8,24.81,NNW,333,0.0,0.0,28,0.00,,---,0.00,VWS V14.01,2013-10-21 05:57:00,
2013-10-21 00:58:00,42.6,11.8,24.81,NNW,333,0.0,0.0,28,0.00,,---,0.00,VWS V14.01,2013-10-21 05:58:00,
2013-10-21 00:59:00,42.6,11.8,24.81,NNW,333,0.0,0.0,28,0.00,,---,0.00,VWS V14.01,2013-10-21 05:59:00,
2013-10-21 01:00:00,42.4,11.7,24.81,NNW,333,0.0,0.0,28,0.00,,---,0.00,VWS V14.01,2013-10-21 06:00:00,
2013-10-21 01:02:00,42.4,11.7,24.81,NNW,333,0.0,0.0,28,0.00,,---,0.00,VWS V14.01,2013-10-21 06:02:00,
2013-10-21 01:03:00,42.4,11.7,24.81,NNW,333,0.0,0.0,28,0.00,,---,0.00,VWS V14.01,2013-10-21 06:03:00,
2013-10-21 01:04:00,42.4,11.7,24.81,NNW,333,4.0,4.9,28,0.00,,---,0.00,VWS V14.01,2013-10-21 06:04:00,
2013-10-21 01:05:00,42.4,11.7,24.81,NNW,333,3.6,4.9,28,0.00,,---,0.00,VWS V14.01,2013-10-21 06:05:00,
2013-10-21 01:07:00,42.4,11.7,24.81,NNW,333,4.0,4.0,28,0.00,,---,0.00,VWS V14.01,2013-10-21 06:07:00,
2013-10-21 01:08:00,42.4,11.7,24.81,NNW,333,4.0,4.0,28,0.00,,---,0.00,VWS V14.01,2013-10-21 06:08:00,
2013-10-21 01:09:00,42.4,11.7,24.81,NNW,333,2.7,3.6,28,0.00,,---,0.00,VWS V14.01,2013-10-21 06:09:00,
2013-10-21 01:10:00,42.4,11.7,24.81,NNW,333,0.0,2.2,28,0.00,,---,0.00,VWS V14.01,2013-10-21 06:10:00,
2013-10-21 01:13:00,42.4,11.7,24.81,NNW,333,0.0,0.0,28,0.00,,---,0.00,VWS V14.01,2013-10-21 06:13:00,
2013-10-21 01:14:00,42.4,11.7,24.81,NNW,333,0.0,0.0,28,0.00,,---,0.00,VWS V14.01,2013-10-21 06:14:00,
2013-10-21 01:15:00,42.4,11.7,24.81,NNW,333,0.0,0.0,28,0.00,,---,0.00,VWS V14.01,2013-10-21 06:15:00,
2013-10-21 01:18:00,42.4,11.7,24.81,NNW,333,0.0,0.0,28,0.00,,---,0.00,VWS V14.01,2013-10-21 06:18:00,
2013-10-21 01:19:00,42.4,11.7,24.81,NNW,333,0.0,0.0,28,0.00,,---,0.00,VWS V14.01,2013-10-21 06:19:00,
2013-10-21 01:20:00,42.3,11.5,24.81,NNW,333,0.0,0.0,28,0.00,,---,0.00,VWS V14.01,2013-10-21 06:20:00,
2013-10-21 01:23:00,42.3,11.5,24.81,NNW,333,0.0,0.0,28,0.00,,---,0.00,VWS V14.01,2013-10-21 06:23:00,
2013-10-21 01:24:00,42.1,11.3,24.81,NNW,333,0.0,0.0,28,0.00,,---,0.00,VWS V14.01,2013-10-21 06:24:00,
2013-10-21 01:25:00,42.1,11.3,24.81,NNW,333,0.0,0.0,28,0.00,,---,0.00,VWS V14.01,2013-10-21 06:25:00,
2013-10-21 01:26:00,42.1,11.3,24.81,NNW,333,0.0,0.0,28,0.00,,---,0.00,VWS V14.01,2013-10-21 06:26:00,
2013-10-21 01:28:00,42.3,11.5,24.81,NNW,333,0.0,0.0,28,0.00,,---,0.00,VWS V14.01,2013-10-21 06:28:00,
2013-10-21 01:29:00,42.3,11.5,24.81,NNW,333,0.0,0.0,28,0.00,,---,0.00,VWS V14.01,2013-10-21 06:29:00,
2013-10-21 01:30:00,42.3,11.5,24.81,NNW,333,0.0,0.0,28,0.00,,---,0.00,VWS V14.01,2013-10-21 06:30:00,
2013-10-21 01:31:00,42.4,11.7,24.81,NNW,333,0.0,0.0,28,0.00,,---,0.00,VWS V14.01,2013-10-21 06:31:00,
2013-10-21 01:34:00,42.3,11.5,24.81,NNW,333,0.0,0.0,28,0.00,,---,0.00,VWS V14.01,2013-10-21 06:34:00,
2013-10-21 01:35:00,42.3,11.5,24.81,NNW,333,0.0,0.0,28,0.00,,---,0.00,VWS V14.01,2013-10-21 06:35:00,
2013-10-21 01:36:00,42.1,11.3,24.81,NNW,333,0.0,0.0,28,0.00,,---,0.00,VWS V14.01,2013-10-21 06:36:00,
2013-10-21 01:40:00,41.9,11.2,24.81,NNW,333,0.0,0.0,28,0.00,,---,0.00,VWS V14.01,2013-10-21 06:40:00,
2013-10-21 01:41:00,41.7,11.0,24.81,NNW,333,3.1,3.1,28,0.00,,---,0.00,VWS V14.01,2013-10-21 06:41:00,
2013-10-21 01:45:00,41.4,10.7,24.81,NNW,332,3.6,3.6,28,0.00,,---,0.00,VWS V14.01,2013-10-21 06:45:00,
2013-10-21 01:46:00,41.4,10.7,24.81,NNW,332,3.1,4.0,28,0.00,,---,0.00,VWS V14.01,2013-10-21 06:46:00,
2013-10-21 01:47:00,41.4,10.7,24.81,NNW,332,4.0,4.0,28,0.00,,---,0.00,VWS V14.01,2013-10-21 06:47:00,
2013-10-21 01:50:00,41.4,10.7,24.81,NW,316,4.9,4.9,28,0.00,,---,0.00,VWS V14.01,2013-10-21 06:50:00,
2013-10-21 01:51:00,41.4,10.7,24.81,NW,306,4.5,4.9,28,0.00,,---,0.00,VWS V14.01,2013-10-21 06:51:00,
2013-10-21 01:52:00,41.5,10.9,24.81,NW,307,4.9,4.9,28,0.00,,---,0.00,VWS V14.01,2013-10-21 06:52:00,
2013-10-21 01:55:00,41.7,11.0,24.81,NW,311,3.6,5.4,28,0.00,,---,0.00,VWS V14.01,2013-10-21 06:55:00,
2013-10-21 01:56:00,41.9,11.2,24.81,NW,314,4.9,4.9,28,0.00,,---,0.00,VWS V14.01,2013-10-21 06:56:00,
2013-10-21 01:58:00,41.9,11.2,24.81,NW,317,3.6,3.6,28,0.00,,---,0.00,VWS V14.01,2013-10-21 06:58:00,
2013-10-21 02:00:00,41.9,11.2,24.81,NW,317,2.7,2.7,28,0.00,,---,0.00,VWS V14.01,2013-10-21 07:00:00,
2013-10-21 02:01:00,41.7,11.0,24.81,NW,324,4.0,4.0,28,0.00,,---,0.00,VWS V14.01,2013-10-21 07:01:00,
2013-10-21 02:04:00,41.5,10.9,24.81,NNW,328,3.1,3.1,28,0.00,,---,0.00,VWS V14.01,2013-10-21 07:04:00,
2013-10-21 02:05:00,41.5,10.9,24.81,NNW,330,4.0,4.0,28,0.00,,---,0.00,VWS V14.01,2013-10-21 07:05:00,
2013-10-21 02:06:00,41.4,10.7,24.81,NNW,333,4.0,4.0,28,0.00,,---,0.00,VWS V14.01,2013-10-21 07:06:00,
2013-10-21 02:10:00,41.4,10.7,24.81,NNW,330,5.4,5.8,28,0.00,,---,0.00,VWS V14.01,2013-10-21 07:10:00,
2013-10-21 02:11:00,41.5,10.9,24.81,NNW,329,4.9,4.9,28,0.00,,---,0.00,VWS V14.01,2013-10-21 07:11:00,
2013-10-21 02:15:00,41.9,11.2,24.81,NNW,332,4.0,4.0,28,0.00,,---,0.00,VWS V14.01,2013-10-21 07:15:00,
2013-10-21 02:16:00,41.9,11.2,24.81,NNW,331,4.9,4.9,28,0.00,,---,0.00,VWS V14.01,2013-10-21 07:16:00,
2013-10-21 02:17:00,42.1,11.3,24.81,NNW,331,4.9,4.9,28,0.00,,---,0.00,VWS V14.01,2013-10-21 07:17:00,
2013-10-21 02:20:00,42.1,11.3,24.81,NNW,333,5.8,5.8,28,0.00,,---,0.00,VWS V14.01,2013-10-21 07:20:00,
2013-10-21 02:21:00,42.3,11.5,24.81,NNW,331,5.8,5.8,28,0.00,,---,0.00,VWS V14.01,2013-10-21 07:21:00,
2013-10-21 02:22:00,42.3,11.5,24.81,NNW,335,4.0,5.8,28,0.00,,---,0.00,VWS V14.01,2013-10-21 07:22:00,
2013-10-21 02:26:00,41.9,11.2,24.81,NNW,335,4.0,4.0,28,0.00,,---,0.00,VWS V14.01,2013-10-21 07:26:00,
2013-10-21 02:27:00,41.7,11.0,24.81,NNW,334,2.2,3.6,28,0.00,,---,0.00,VWS V14.01,2013-10-21 07:27:00,
2013-10-21 02:28:00,41.7,11.0,24.81,NNW,334,0.0,2.2,28,0.00,,---,0.00,VWS V14.01,2013-10-21 07:28:00,
2013-10-21 02:31:00,41.5,10.9,24.81,NNW,335,0.0,0.0,28,0.00,,---,0.00,VWS V14.01,2013-10-21 07:31:00,
2013-10-21 02:32:00,41.4,10.7,24.81,NNW,337,2.2,2.2,28,0.00,,---,0.00,VWS V14.01,2013-10-21 07:32:00,
2013-10-21 02:33:00,41.4,10.7,24.81,NNW,336,0.0,0.0,28,0.00,,---,0.00,VWS V14.01,2013-10-21 07:33:00,
2013-10-21 02:36:00,41.5,10.9,24.81,NNW,337,0.0,0.0,28,0.00,,---,0.00,VWS V14.01,2013-10-21 07:36:00,
2013-10-21 02:37:00,41.5,10.9,24.81,NNW,337,0.0,0.0,28,0.00,,---,0.00,VWS V14.01,2013-10-21 07:37:00,
2013-10-21 02:39:00,41.7,11.0,24.81,NNW,337,0.0,0.0,28,0.00,,---,0.00,VWS V14.01,2013-10-21 07:39:00,
2013-10-21 02:41:00,41.7,11.0,24.81,NNW,337,0.0,0.0,28,0.00,,---,0.00,VWS V14.01,2013-10-21 07:41:00,
2013-10-21 02:42:00,41.5,10.9,24.81,NNW,337,0.0,0.0,28,0.00,,---,0.00,VWS V14.01,2013-10-21 07:42:00,
2013-10-21 02:44:00,41.5,10.9,24.81,NNW,337,0.0,0.0,28,0.00,,---,0.00,VWS V14.01,2013-10-21 07:44:00,
2013-10-21 02:46:00,41.2,10.6,24.81,NNW,337,0.0,0.0,28,0.00,,---,0.00,VWS V14.01,2013-10-21 07:46:00,
2013-10-21 02:47:00,41.2,10.6,24.81,NNW,337,0.0,0.0,28,0.00,,---,0.00,VWS V14.01,2013-10-21 07:47:00,
2013-10-21 02:49:00,41.0,10.4,24.81,NNW,337,0.0,0.0,28,0.00,,---,0.00,VWS V14.01,2013-10-21 07:49:00,
2013-10-21 02:51:00,40.5,9.9,24.81,NNW,337,0.0,0.0,28,0.00,,---,0.00,VWS V14.01,2013-10-21 07:51:00,
2013-10-21 02:52:00,40.5,9.9,24.81,NNW,337,0.0,0.0,28,0.00,,---,0.00,VWS V14.01,2013-10-21 07:52:00,
2013-10-21 02:53:00,40.5,9.9,24.81,NNW,337,0.0,0.0,28,0.00,,---,0.00,VWS V14.01,2013-10-21 07:53:00,
2013-10-21 02:55:00,40.3,9.8,24.81,NNW,337,0.0,0.0,28,0.00,,---,0.00,VWS V14.01,2013-10-21 07:55:00,
2013-10-21 02:57:00,40.1,9.6,24.81,NNW,337,0.0,0.0,28,0.00,,---,0.00,VWS V14.01,2013-10-21 07:57:00,
2013-10-21 02:59:00,39.7,9.3,24.81,NNW,337,0.0,0.0,28,0.00,,---,0.00,VWS V14.01,2013-10-21 07:59:00,
2013-10-21 03:00:00,39.7,9.3,24.81,NNW,336,0.0,0.0,28,0.00,,---,0.00,VWS V14.01,2013-10-21 08:00:00,
2013-10-21 03:02:00,39.7,9.3,24.81,NNW,329,3.6,3.6,28,0.00,,---,0.00,VWS V14.01,2013-10-21 08:02:00,
2013-10-21 03:05:00,39.7,9.3,24.81,NNW,328,2.2,3.1,28,0.00,,---,0.00,VWS V14.01,2013-10-21 08:05:00,
2013-10-21 03:06:00,39.7,9.3,24.81,NNW,328,2.7,2.7,28,0.00,,---,0.00,VWS V14.01,2013-10-21 08:06:00,
2013-10-21 03:07:00,39.7,10.1,24.81,NNW,328,2.2,2.2,29,0.00,,---,0.00,VWS V14.01,2013-10-21 08:07:00,
2013-10-21 03:08:00,39.9,10.2,24.81,NNW,328,2.2,2.7,29,0.00,,---,0.00,VWS V14.01,2013-10-21 08:08:00,
2013-10-21 03:10:00,40.1,10.4,24.81,NNW,328,2.2,2.7,29,0.00,,---,0.00,VWS V14.01,2013-10-21 08:10:00,
2013-10-21 03:11:00,40.1,10.4,24.81,NNW,328,2.7,2.7,29,0.00,,---,0.00,VWS V14.01,2013-10-21 08:11:00,
2013-10-21 03:12:00,40.3,10.6,24.81,NNW,328,2.7,2.7,29,0.00,,---,0.00,VWS V14.01,2013-10-21 08:12:00,
2013-10-21 03:13:00,40.5,10.7,24.81,NNW,328,2.7,2.7,29,0.00,,---,0.00,VWS V14.01,2013-10-21 08:13:00,
2013-10-21 03:16:00,40.6,10.1,24.81,NNW,328,2.7,2.7,28,0.00,,---,0.00,VWS V14.01,2013-10-21 08:16:00,
2013-10-21 03:17:00,40.8,10.2,24.81,NNW,328,0.0,3.1,28,0.00,,---,0.00,VWS V14.01,2013-10-21 08:17:00,
2013-10-21 03:18:00,40.8,10.2,24.81,NNW,328,2.7,3.1,28,0.00,,---,0.00,VWS V14.01,2013-10-21 08:18:00,
2013-10-21 03:21:00,41.0,10.4,24.81,NNW,328,0.0,0.0,28,0.00,,---,0.00,VWS V14.01,2013-10-21 08:21:00,
2013-10-21 03:22:00,41.0,10.4,24.81,NNW,328,0.0,0.0,28,0.00,,---,0.00,VWS V14.01,2013-10-21 08:22:00,
2013-10-21 03:23:00,41.0,10.4,24.81,NNW,328,0.0,0.0,28,0.00,,---,0.00,VWS V14.01,2013-10-21 08:23:00,
2013-10-21 03:26:00,40.6,10.1,24.81,NNW,328,0.0,0.0,28,0.00,,---,0.00,VWS V14.01,2013-10-21 08:26:00,
2013-10-21 03:27:00,40.6,10.1,24.81,NNW,327,0.0,0.0,28,0.00,,---,0.00,VWS V14.01,2013-10-21 08:27:00,
2013-10-21 03:28:00,40.6,10.1,24.81,NNW,327,3.1,3.1,28,0.00,,---,0.00,VWS V14.01,2013-10-21 08:28:00,
2013-10-21 03:29:00,40.6,10.1,24.81,NNW,327,3.1,3.6,28,0.00,,---,0.00,VWS V14.01,2013-10-21 08:29:00,
2013-10-21 03:31:00,40.6,10.1,24.81,NNW,327,3.1,3.1,28,0.00,,---,0.00,VWS V14.01,2013-10-21 08:31:00,
2013-10-21 03:33:00,40.6,10.1,24.81,NNW,327,3.1,3.1,28,0.00,,---,0.00,VWS V14.01,2013-10-21 08:33:00,
2013-10-21 03:34:00,40.6,10.1,24.81,NNW,327,2.7,3.6,28,0.00,,---,0.00,VWS V14.01,2013-10-21 08:34:00,
2013-10-21 03:36:00,40.5,9.9,24.81,NNW,327,0.0,0.0,28,0.00,,---,0.00,VWS V14.01,2013-10-21 08:36:00,
2013-10-21 03:38:00,40.5,9.9,24.81,NNW,327,0.0,0.0,28,0.00,,---,0.00,VWS V14.01,2013-10-21 08:38:00,
2013-10-21 03:39:00,40.3,9.8,24.81,NNW,327,0.0,0.0,28,0.00,,---,0.00,VWS V14.01,2013-10-21 08:39:00,
2013-10-21 03:41:00,40.1,9.6,24.81,NNW,327,0.0,0.0,28,0.00,,---,0.00,VWS V14.01,2013-10-21 08:41:00,
2013-10-21 03:43:00,39.9,9.5,24.81,NNW,331,0.0,0.0,28,0.00,,---,0.00,VWS V14.01,2013-10-21 08:43:00,
2013-10-21 03:44:00,39.9,9.5,24.81,NNW,337,0.0,0.0,28,0.00,,---,0.00,VWS V14.01,2013-10-21 08:44:00,
2013-10-21 03:47:00,39.7,9.3,24.81,North,349,3.1,3.1,28,0.00,,---,0.00,VWS V14.01,2013-10-21 08:47:00,
2013-10-21 03:48:00,39.6,9.2,24.81,North,349,2.2,2.2,28,0.00,,---,0.00,VWS V14.01,2013-10-21 08:48:00,
2013-10-21 03:49:00,39.6,9.2,24.81,North,349,2.7,2.7,28,0.00,,---,0.00,VWS V14.01,2013-10-21 08:49:00,
2013-10-21 03:52:00,39.4,9.8,24.81,North,349,0.0,0.0,29,0.00,,---,0.00,VWS V14.01,2013-10-21 08:52:00,
2013-10-21 03:53:00,39.4,9.8,24.81,North,349,0.0,0.0,29,0.00,,---,0.00,VWS V14.01,2013-10-21 08:53:00,
2013-10-21 03:54:00,39.4,9.8,24.81,North,349,0.0,0.0,29,0.00,,---,0.00,VWS V14.01,2013-10-21 08:54:00,
2013-10-21 03:57:00,39.2,9.6,24.81,North,349,0.0,0.0,29,0.00,,---,0.00,VWS V14.01,2013-10-21 08:57:00,
2013-10-21 03:58:00,38.8,9.3,24.81,North,349,0.0,0.0,29,0.00,,---,0.00,VWS V14.01,2013-10-21 08:58:00,
2013-10-21 03:59:00,38.7,9.2,24.81,North,349,0.0,0.0,29,0.00,,---,0.00,VWS V14.01,2013-10-21 08:59:00,
2013-10-21 04:00:00,38.7,9.2,24.81,North,349,0.0,0.0,29,0.00,,---,0.00,VWS V14.01,2013-10-21 09:00:00,
2013-10-21 04:02:00,38.3,8.8,24.81,North,349,0.0,0.0,29,0.00,,---,0.00,VWS V14.01,2013-10-21 09:02:00,
2013-10-21 04:04:00,38.1,8.7,24.81,North,349,0.0,0.0,29,0.00,,---,0.00,VWS V14.01,2013-10-21 09:04:00,
2013-10-21 04:05:00,37.9,8.5,24.81,North,349,0.0,0.0,29,0.00,,---,0.00,VWS V14.01,2013-10-21 09:05:00,
2013-10-21 04:08:00,37.8,8.4,24.81,North,349,0.0,0.0,29,0.00,,---,0.00,VWS V14.01,2013-10-21 09:08:00,
2013-10-21 04:09:00,37.6,8.2,24.81,North,349,0.0,0.0,29,0.00,,---,0.00,VWS V14.01,2013-10-21 09:09:00,
2013-10-21 04:10:00,37.6,8.2,24.81,North,349,0.0,0.0,29,0.00,,---,0.00,VWS V14.01,2013-10-21 09:10:00,
2013-10-21 04:11:00,37.6,8.2,24.81,North,349,0.0,0.0,29,0.00,,---,0.00,VWS V14.01,2013-10-21 09:11:00,
2013-10-21 04:13:00,37.6,8.2,24.81,North,349,0.0,0.0,29,0.00,,---,0.00,VWS V14.01,2013-10-21 09:13:00,
2013-10-21 04:14:00,37.6,8.2,24.81,North,349,0.0,0.0,29,0.00,,---,0.00,VWS V14.01,2013-10-21 09:14:00,
2013-10-21 04:15:00,37.6,8.2,24.81,North,349,0.0,0.0,29,0.00,,---,0.00,VWS V14.01,2013-10-21 09:15:00,
2013-10-21 04:16:00,37.6,8.2,24.81,North,349,0.0,0.0,29,0.00,,---,0.00,VWS V14.01,2013-10-21 09:16:00,
2013-10-21 04:18:00,37.6,8.2,24.81,North,349,0.0,0.0,29,0.00,,---,0.00,VWS V14.01,2013-10-21 09:18:00,
2013-10-21 04:19:00,37.6,8.2,24.81,North,349,0.0,0.0,29,0.00,,---,0.00,VWS V14.01,2013-10-21 09:19:00,
2013-10-21 04:20:00,37.6,8.2,24.81,North,349,0.0,0.0,29,0.00,,---,0.00,VWS V14.01,2013-10-21 09:20:00,
2013-10-21 04:21:00,37.6,8.2,24.81,North,349,0.0,0.0,29,0.00,,---,0.00,VWS V14.01,2013-10-21 09:21:00,
2013-10-21 04:23:00,37.4,8.1,24.81,NNW,346,2.7,3.6,29,0.00,,---,0.00,VWS V14.01,2013-10-21 09:23:00,
2013-10-21 04:24:00,37.4,8.1,24.81,NNW,346,2.7,2.7,29,0.00,,---,0.00,VWS V14.01,2013-10-21 09:24:00,
2013-10-21 04:25:00,37.4,8.8,24.81,NNW,340,4.0,4.0,30,0.00,,---,0.00,VWS V14.01,2013-10-21 09:25:00,
2013-10-21 04:26:00,37.4,8.8,24.81,NNW,339,3.6,4.0,30,0.00,,---,0.00,VWS V14.01,2013-10-21 09:26:00,
2013-10-21 04:27:00,37.4,8.8,24.81,NNW,339,2.7,4.0,30,0.00,,---,0.00,VWS V14.01,2013-10-21 09:27:00,
2013-10-21 04:29:00,37.4,8.8,24.81,NNW,339,3.1,3.6,30,0.00,,---,0.00,VWS V14.01,2013-10-21 09:29:00,
2013-10-21 04:30:00,37.4,8.8,24.81,NNW,339,3.6,3.6,30,0.00,,---,0.00,VWS V14.01,2013-10-21 09:30:00,
2013-10-21 04:31:00,37.4,8.8,24.81,NNW,339,2.7,3.1,30,0.00,,---,0.00,VWS V14.01,2013-10-21 09:31:00,
2013-10-21 04:32:00,37.4,8.8,24.81,NNW,339,0.0,0.0,30,0.00,,---,0.00,VWS V14.01,2013-10-21 09:32:00,
2013-10-21 04:34:00,37.4,8.8,24.81,NNW,339,0.0,0.0,30,0.00,,---,0.00,VWS V14.01,2013-10-21 09:34:00,
2013-10-21 04:35:00,37.4,8.8,24.81,NNW,339,0.0,0.0,30,0.00,,---,0.00,VWS V14.01,2013-10-21 09:35:00,
2013-10-21 04:36:00,37.4,8.8,24.81,NNW,339,0.0,0.0,30,0.00,,---,0.00,VWS V14.01,2013-10-21 09:36:00,
2013-10-21 04:37:00,37.4,8.8,24.81,NNW,339,0.0,0.0,30,0.00,,---,0.00,VWS V14.01,2013-10-21 09:37:00,
2013-10-21 04:39:00,37.6,9.0,24.81,NNW,339,0.0,0.0,30,0.00,,---,0.00,VWS V14.01,2013-10-21 09:39:00,
2013-10-21 04:40:00,37.6,9.0,24.81,NNW,339,0.0,0.0,30,0.00,,---,0.00,VWS V14.01,2013-10-21 09:40:00,
2013-10-21 04:41:00,37.6,9.0,24.81,NNW,339,0.0,0.0,30,0.00,,---,0.00,VWS V14.01,2013-10-21 09:41:00,
2013-10-21 04:42:00,37.9,9.3,24.81,NNW,339,0.0,0.0,30,0.00,,---,0.00,VWS V14.01,2013-10-21 09:42:00,
2013-10-21 04:44:00,38.1,9.4,24.81,NNW,339,0.0,0.0,30,0.00,,---,0.00,VWS V14.01,2013-10-21 09:44:00,
2013-10-21 04:45:00,38.3,9.6,24.81,NNW,339,0.0,0.0,30,0.00,,---,0.00,VWS V14.01,2013-10-21 09:45:00,
2013-10-21 04:46:00,38.3,9.6,24.81,NNW,339,0.0,0.0,30,0.00,,---,0.00,VWS V14.01,2013-10-21 09:46:00,
2013-10-21 04:47:00,38.3,9.6,24.81,NNW,339,0.0,0.0,30,0.00,,---,0.00,VWS V14.01,2013-10-21 09:47:00,
2013-10-21 04:49:00,38.5,9.8,24.81,NNW,339,0.0,0.0,30,0.00,,---,0.00,VWS V14.01,2013-10-21 09:49:00,
2013-10-21 04:50:00,38.5,9.8,24.81,NNW,339,0.0,0.0,30,0.00,,---,0.00,VWS V14.01,2013-10-21 09:50:00,
2013-10-21 04:51:00,38.5,9.8,24.81,NNW,339,0.0,0.0,30,0.00,,---,0.00,VWS V14.01,2013-10-21 09:51:00,
2013-10-21 04:52:00,38.5,9.8,24.81,NNW,339,0.0,0.0,30,0.00,,---,0.00,VWS V14.01,2013-10-21 09:52:00,
2013-10-21 04:54:00,38.5,9.8,24.81,NNW,339,0.0,0.0,30,0.00,,---,0.00,VWS V14.01,2013-10-21 09:54:00,
2013-10-21 04:55:00,38.5,9.8,24.81,NNW,339,0.0,0.0,30,0.00,,---,0.00,VWS V14.01,2013-10-21 09:55:00,
2013-10-21 04:56:00,38.5,9.8,24.81,NNW,339,0.0,0.0,30,0.00,,---,0.00,VWS V14.01,2013-10-21 09:56:00,
2013-10-21 04:58:00,38.5,9.8,24.81,NNW,339,3.6,3.6,30,0.00,,---,0.00,VWS V14.01,2013-10-21 09:58:00,
2013-10-21 04:59:00,38.5,9.8,24.81,NNW,338,4.0,4.5,30,0.00,,---,0.00,VWS V14.01,2013-10-21 09:59:00,
2013-10-21 05:00:00,38.5,9.8,24.81,NNW,338,3.6,4.5,30,0.00,,---,0.00,VWS V14.01,2013-10-21 10:00:00,
2013-10-21 05:01:00,38.5,9.8,24.81,NNW,338,4.0,4.0,30,0.00,,---,0.00,VWS V14.01,2013-10-21 10:01:00,
2013-10-21 05:03:00,38.5,9.8,24.81,NW,325,4.0,4.0,30,0.00,,---,0.00,VWS V14.01,2013-10-21 10:03:00,
2013-10-21 05:04:00,38.5,9.8,24.81,NW,325,4.0,4.0,30,0.00,,---,0.00,VWS V14.01,2013-10-21 10:04:00,
2013-10-21 05:05:00,38.5,9.8,24.81,NW,325,4.0,4.0,30,0.00,,---,0.00,VWS V14.01,2013-10-21 10:05:00,
2013-10-21 05:06:00,38.5,9.8,24.81,NW,325,2.7,4.0,30,0.00,,---,0.00,VWS V14.01,2013-10-21 10:06:00,
2013-10-21 05:08:00,38.3,9.6,24.81,NW,325,2.7,2.7,30,0.00,,---,0.00,VWS V14.01,2013-10-21 10:08:00,
2013-10-21 05:09:00,38.1,9.4,24.81,NW,325,0.0,0.0,30,0.00,,---,0.00,VWS V14.01,2013-10-21 10:09:00,
2013-10-21 05:10:00,38.1,9.4,24.81,NW,325,0.0,0.0,30,0.00,,---,0.00,VWS V14.01,2013-10-21 10:10:00,
2013-10-21 05:11:00,37.8,9.1,24.81,NW,325,0.0,0.0,30,0.00,,---,0.00,VWS V14.01,2013-10-21 10:11:00,
2013-10-21 05:12:00,37.8,9.1,24.81,NW,325,0.0,0.0,30,0.00,,---,0.00,VWS V14.01,2013-10-21 10:12:00,
2013-10-21 05:13:00,37.6,9.0,24.81,NW,325,0.0,0.0,30,0.00,,---,0.00,VWS V14.01,2013-10-21 10:13:00,
2013-10-21 05:14:00,37.4,8.8,24.81,NW,325,0.0,0.0,30,0.00,,---,0.00,VWS V14.01,2013-10-21 10:14:00,
2013-10-21 05:15:00,37.4,8.8,24.81,NW,325,0.0,0.0,30,0.00,,---,0.00,VWS V14.01,2013-10-21 10:15:00,
2013-10-21 05:17:00,37.0,8.5,24.81,NW,325,0.0,0.0,30,0.00,,---,0.00,VWS V14.01,2013-10-21 10:17:00,
2013-10-21 05:18:00,36.9,8.3,24.81,NW,325,0.0,0.0,30,0.00,,---,0.00,VWS V14.01,2013-10-21 10:18:00,
2013-10-21 05:19:00,36.9,8.3,24.81,NW,325,0.0,0.0,30,0.00,,---,0.00,VWS V14.01,2013-10-21 10:19:00,
2013-10-21 05:20:00,36.9,8.3,24.81,NW,325,0.0,0.0,30,0.00,,---,0.00,VWS V14.01,2013-10-21 10:20:00,
2013-10-21 05:22:00,36.7,8.2,24.81,NW,325,0.0,0.0,30,0.00,,---,0.00,VWS V14.01,2013-10-21 10:22:00,
2013-10-21 05:24:00,36.5,8.0,24.81,NW,325,0.0,0.0,30,0.00,,---,0.00,VWS V14.01,2013-10-21 10:24:00,
2013-10-21 05:25:00,36.5,8.0,24.81,NW,325,0.0,0.0,30,0.00,,---,0.00,VWS V14.01,2013-10-21 10:25:00,
2013-10-21 05:27:00,36.3,7.9,24.81,NW,325,0.0,0.0,30,0.00,,---,0.00,VWS V14.01,2013-10-21 10:27:00,
2013-10-21 05:29:00,36.5,8.8,24.81,NW,325,0.0,0.0,31,0.00,,---,0.00,VWS V14.01,2013-10-21 10:29:00,
2013-10-21 05:30:00,36.5,8.8,24.81,NW,325,2.2,2.7,31,0.00,,---,0.00,VWS V14.01,2013-10-21 10:30:00,
2013-10-21 05:32:00,36.7,8.9,24.81,NW,325,0.0,0.0,31,0.00,,---,0.00,VWS V14.01,2013-10-21 10:32:00,
2013-10-21 05:35:00,36.9,9.1,24.81,NW,325,0.0,0.0,31,0.00,,---,0.00,VWS V14.01,2013-10-21 10:35:00,
2013-10-21 05:37:00,37.0,9.2,24.81,NW,325,0.0,0.0,31,0.00,,---,0.00,VWS V14.01,2013-10-21 10:37:00,
2013-10-21 05:40:00,37.0,9.2,24.81,NW,325,0.0,0.0,31,0.00,,---,0.00,VWS V14.01,2013-10-21 10:40:00,
2013-10-21 05:42:00,37.0,9.2,24.81,NW,325,4.0,4.0,31,0.00,,---,0.00,VWS V14.01,2013-10-21 10:42:00,
2013-10-21 05:45:00,37.0,9.2,24.81,NW,325,4.0,4.0,31,0.00,,---,0.00,VWS V14.01,2013-10-21 10:45:00,
2013-10-21 05:46:00,37.0,9.2,24.81,NW,326,4.0,5.4,31,0.00,,---,0.00,VWS V14.01,2013-10-21 10:46:00,
2013-10-21 05:47:00,37.0,9.2,24.81,NNW,327,3.6,3.6,31,0.00,,---,0.00,VWS V14.01,2013-10-21 10:47:00,
2013-10-21 05:50:00,37.0,9.2,24.81,NW,325,4.9,4.9,31,0.00,,---,0.00,VWS V14.01,2013-10-21 10:50:00,
2013-10-21 05:51:00,37.0,9.2,24.81,NW,325,4.0,4.9,31,0.00,,---,0.00,VWS V14.01,2013-10-21 10:51:00,
2013-10-21 05:52:00,37.0,9.2,24.81,NW,325,2.7,3.1,31,0.00,,---,0.00,VWS V14.01,2013-10-21 10:52:00,
2013-10-21 05:53:00,37.0,9.2,24.81,NW,325,2.2,3.1,31,0.00,,---,0.00,VWS V14.01,2013-10-21 10:53:00,
2013-10-21 05:55:00,37.0,9.2,24.81,NW,325,3.1,3.1,31,0.00,,---,0.00,VWS V14.01,2013-10-21 10:55:00,
2013-10-21 05:56:00,37.0,9.2,24.81,NW,325,3.1,3.6,31,0.00,,---,0.00,VWS V14.01,2013-10-21 10:56:00,
2013-10-21 05:57:00,37.0,9.2,24.81,NW,325,3.1,4.0,31,0.00,,---,0.00,VWS V14.01,2013-10-21 10:57:00,
2013-10-21 05:58:00,37.0,9.2,24.81,NW,325,3.1,4.0,31,0.00,,---,0.00,VWS V14.01,2013-10-21 10:58:00,
2013-10-21 06:00:00,37.0,9.2,24.81,NW,326,3.6,3.6,31,0.00,,---,0.00,VWS V14.01,2013-10-21 11:00:00,
2013-10-21 06:01:00,37.0,9.2,24.81,NW,326,4.0,4.0,31,0.00,,---,0.00,VWS V14.01,2013-10-21 11:01:00,
2013-10-21 06:02:00,37.0,9.9,24.81,NW,326,3.1,3.6,32,0.00,,---,0.00,VWS V14.01,2013-10-21 11:02:00,
2013-10-21 06:03:00,37.0,9.9,24.81,NW,326,3.1,3.6,32,0.00,,---,0.00,VWS V14.01,2013-10-21 11:03:00,
2013-10-21 06:06:00,37.0,9.9,24.81,NNW,328,0.0,4.0,32,0.00,,---,0.00,VWS V14.01,2013-10-21 11:06:00,
2013-10-21 06:07:00,37.0,9.9,24.81,NNW,328,0.0,0.0,32,0.00,,---,0.00,VWS V14.01,2013-10-21 11:07:00,
2013-10-21 06:08:00,37.0,9.9,24.81,NNW,328,0.0,0.0,32,0.00,,---,0.00,VWS V14.01,2013-10-21 11:08:00,
2013-10-21 06:11:00,37.2,10.1,24.81,NNW,327,4.0,4.0,32,0.00,,---,0.00,VWS V14.01,2013-10-21 11:11:00,
2013-10-21 06:12:00,37.2,10.1,24.81,NNW,327,4.0,4.0,32,0.00,,---,0.00,VWS V14.01,2013-10-21 11:12:00,
2013-10-21 06:13:00,37.4,9.5,24.81,NNW,327,3.1,3.6,31,0.00,,---,0.00,VWS V14.01,2013-10-21 11:13:00,
2013-10-21 06:16:00,37.4,9.5,24.81,NNW,327,2.7,3.6,31,0.00,,---,0.00,VWS V14.01,2013-10-21 11:16:00,
2013-10-21 06:17:00,37.6,9.7,24.81,NNW,327,0.0,2.2,31,0.00,,---,0.00,VWS V14.01,2013-10-21 11:17:00,
2013-10-21 06:18:00,37.6,9.7,24.81,NNW,327,2.2,2.2,31,0.00,,---,0.00,VWS V14.01,2013-10-21 11:18:00,
2013-10-21 06:21:00,37.4,9.5,24.81,NNW,327,0.0,0.0,31,0.00,,---,0.00,VWS V14.01,2013-10-21 11:21:00,
2013-10-21 06:22:00,37.2,10.1,24.81,NNW,327,0.0,0.0,32,0.00,,---,0.00,VWS V14.01,2013-10-21 11:22:00,
2013-10-21 06:23:00,37.2,10.1,24.81,NNW,327,0.0,0.0,32,0.00,,---,0.00,VWS V14.01,2013-10-21 11:23:00,
2013-10-21 06:26:00,37.0,9.9,24.81,ENE,70,6.7,6.7,32,0.00,,---,0.00,VWS V14.01,2013-10-21 11:26:00,
2013-10-21 06:28:00,37.2,10.1,24.81,East,84,10.1,10.1,32,0.00,,---,0.00,VWS V14.01,2013-10-21 11:28:00,
2013-10-21 06:29:00,37.2,10.1,24.81,ESE,105,5.8,5.8,32,0.00,,---,0.00,VWS V14.01,2013-10-21 11:29:00,
2013-10-21 06:31:00,37.2,10.8,24.81,ESE,105,4.0,4.0,33,0.00,,---,0.00,VWS V14.01,2013-10-21 11:31:00,
2013-10-21 06:33:00,37.4,9.5,24.81,ESE,110,8.1,8.1,31,0.00,,---,0.00,VWS V14.01,2013-10-21 11:33:00,
2013-10-21 06:34:00,37.8,9.9,24.81,East,100,8.3,8.3,31,0.00,,---,0.00,VWS V14.01,2013-10-21 11:34:00,
2013-10-21 06:35:00,38.5,9.8,24.81,ESE,106,8.1,9.2,30,0.00,,---,0.00,VWS V14.01,2013-10-21 11:35:00,
2013-10-21 06:36:00,39.9,11.0,24.81,ESE,105,5.8,8.1,30,0.00,,---,0.00,VWS V14.01,2013-10-21 11:36:00,
2013-10-21 06:38:00,41.2,10.6,24.81,SE,125,6.3,8.3,28,0.00,,---,0.00,VWS V14.01,2013-10-21 11:38:00,
2013-10-21 06:39:00,41.9,11.2,24.81,ESE,106,5.8,5.8,28,0.00,,---,0.00,VWS V14.01,2013-10-21 11:39:00,
2013-10-21 06:40:00,43.0,12.1,24.81,SSE,154,8.3,8.7,28,0.00,,---,0.00,VWS V14.01,2013-10-21 11:40:00,
2013-10-21 06:41:00,44.6,11.0,24.81,SSE,154,9.6,9.6,25,0.00,,---,0.00,VWS V14.01,2013-10-21 11:41:00,
2013-10-21 06:43:00,45.3,11.6,24.81,ENE,78,5.8,6.3,25,0.00,,---,0.00,VWS V14.01,2013-10-21 11:43:00,
2013-10-21 06:44:00,45.5,11.7,24.81,ENE,78,2.7,2.7,25,0.00,,---,0.00,VWS V14.01,2013-10-21 11:44:00,
2013-10-21 06:45:00,45.7,11.9,24.81,NW,312,4.9,4.9,25,0.00,,---,0.00,VWS V14.01,2013-10-21 11:45:00,
2013-10-21 06:46:00,45.9,12.0,24.81,West,260,3.6,5.8,25,0.00,,---,0.00,VWS V14.01,2013-10-21 11:46:00,
2013-10-21 06:48:00,45.7,11.9,24.83,SW,232,2.2,3.1,25,0.00,,---,0.00,VWS V14.01,2013-10-21 11:48:00,
2013-10-21 06:49:00,45.5,11.7,24.83,SW,232,0.0,0.0,25,0.00,,---,0.00,VWS V14.01,2013-10-21 11:49:00,
2013-10-21 06:50:00,45.5,11.7,24.83,SW,232,0.0,0.0,25,0.00,,---,0.00,VWS V14.01,2013-10-21 11:50:00,
2013-10-21 06:52:00,45.3,8.7,24.83,SW,232,0.0,0.0,22,0.00,,---,0.00,VWS V14.01,2013-10-21 11:52:00,
2013-10-21 06:53:00,45.1,8.6,24.83,ESE,109,6.3,6.3,22,0.00,,---,0.00,VWS V14.01,2013-10-21 11:53:00,
2013-10-21 06:54:00,45.1,8.6,24.83,SSE,156,3.1,6.3,22,0.00,,---,0.00,VWS V14.01,2013-10-21 11:54:00,
2013-10-21 06:55:00,45.1,8.6,24.83,SE,129,4.0,4.0,22,0.00,,---,0.00,VWS V14.01,2013-10-21 11:55:00,
2013-10-21 06:57:00,45.5,8.9,24.83,East,83,4.0,4.0,22,0.00,,---,0.00,VWS V14.01,2013-10-21 11:57:00,
2013-10-21 06:59:00,45.5,8.9,24.83,SSE,168,0.0,2.7,22,0.00,,---,0.00,VWS V14.01,2013-10-21 11:59:00,
2013-10-21 07:00:00,45.5,8.9,24.83,SSE,168,0.0,0.0,22,0.00,,---,0.00,VWS V14.01,2013-10-21 12:00:00,
2013-10-21 07:02:00,45.3,8.7,24.83,ESE,107,0.0,0.0,22,0.00,,---,0.00,VWS V14.01,2013-10-21 12:02:00,
2013-10-21 07:04:00,45.1,8.6,24.83,East,82,5.4,5.4,22,0.00,,---,0.00,VWS V14.01,2013-10-21 12:04:00,
2013-10-21 07:05:00,45.0,8.4,24.83,ENE,61,3.6,5.8,22,0.00,,---,0.00,VWS V14.01,2013-10-21 12:05:00,
2013-10-21 07:06:00,45.0,8.4,24.83,ENE,63,3.1,3.6,22,0.00,,---,0.00,VWS V14.01,2013-10-21 12:06:00,
2013-10-21 07:07:00,45.1,8.6,24.83,ENE,63,3.1,3.6,22,0.00,,---,0.00,VWS V14.01,2013-10-21 12:07:00,
2013-10-21 07:09:00,45.1,8.6,24.83,NE,43,3.6,4.9,22,0.00,,---,0.00,VWS V14.01,2013-10-21 12:09:00,
2013-10-21 07:10:00,45.1,8.6,24.83,ESE,110,4.0,4.9,22,0.00,,---,0.00,VWS V14.01,2013-10-21 12:10:00,
2013-10-21 07:11:00,45.1,8.6,24.83,ENE,73,3.6,3.6,22,0.00,,---,0.00,VWS V14.01,2013-10-21 12:11:00,
2013-10-21 07:12:00,45.3,8.7,24.83,NE,50,3.1,3.6,22,0.00,,---,0.00,VWS V14.01,2013-10-21 12:12:00,
2013-10-21 07:14:00,45.3,8.7,24.83,NNW,338,3.6,3.6,22,0.00,,---,0.00,VWS V14.01,2013-10-21 12:14:00,
2013-10-21 07:15:00,45.3,8.7,24.83,East,83,3.6,3.6,22,0.00,,---,0.00,VWS V14.01,2013-10-21 12:15:00,
2013-10-21 07:17:00,45.5,8.9,24.83,North,0,2.7,3.1,22,0.00,,---,0.00,VWS V14.01,2013-10-21 12:17:00,
2013-10-21 07:19:00,45.5,8.9,24.83,NE,50,2.2,4.9,22,0.00,,---,0.00,VWS V14.01,2013-10-21 12:19:00,
2013-10-21 07:20:00,45.5,8.9,24.83,North,350,4.0,4.9,22,0.00,,---,0.00,VWS V14.01,2013-10-21 12:20:00,
2013-10-21 07:22:00,45.3,8.7,24.83,East,79,0.0,0.0,22,0.00,,---,0.00,VWS V14.01,2013-10-21 12:22:00,
2013-10-21 07:23:00,45.1,8.6,24.83,East,79,0.0,0.0,22,0.00,,---,0.00,VWS V14.01,2013-10-21 12:23:00,
2013-10-21 07:25:00,45.0,8.4,24.83,ENE,75,0.0,0.0,22,0.00,,---,0.00,VWS V14.01,2013-10-21 12:25:00,
2013-10-21 07:26:00,44.6,8.1,24.83,East,84,2.7,2.7,22,0.00,,---,0.00,VWS V14.01,2013-10-21 12:26:00,
2013-10-21 07:27:00,44.4,8.9,24.83,East,80,3.6,4.0,23,0.00,,---,0.00,VWS V14.01,2013-10-21 12:27:00,
2013-10-21 07:28:00,44.4,8.9,24.83,ENE,59,2.7,2.7,23,0.00,,---,0.00,VWS V14.01,2013-10-21 12:28:00,
2013-10-21 07:30:00,44.2,8.8,24.83,NE,50,0.0,0.0,23,0.00,,---,0.00,VWS V14.01,2013-10-21 12:30:00,
2013-10-21 07:31:00,44.2,8.8,24.83,NE,55,2.7,2.7,23,0.00,,---,0.00,VWS V14.01,2013-10-21 12:31:00,
2013-10-21 07:32:00,44.1,8.6,24.83,NE,55,0.0,0.0,23,0.00,,---,0.00,VWS V14.01,2013-10-21 12:32:00,
2013-10-21 07:34:00,44.1,8.6,24.83,NE,46,0.0,0.0,23,0.00,,---,0.00,VWS V14.01,2013-10-21 12:34:00,
2013-10-21 07:35:00,43.9,8.5,24.83,NNE,24,0.0,0.0,23,0.00,,---,0.00,VWS V14.01,2013-10-21 12:35:00,
2013-10-21 07:36:00,43.7,8.3,24.83,NNE,24,0.0,2.2,23,0.00,,---,0.00,VWS V14.01,2013-10-21 12:36:00,
2013-10-21 07:37:00,43.5,8.2,24.83,NNE,24,0.0,0.0,23,0.00,,---,0.00,VWS V14.01,2013-10-21 12:37:00,
2013-10-21 07:39:00,43.3,8.0,24.83,NNE,24,0.0,0.0,23,0.00,,---,0.00,VWS V14.01,2013-10-21 12:39:00,
2013-10-21 07:40:00,43.0,7.7,24.83,NNE,24,0.0,0.0,23,0.00,,---,0.00,VWS V14.01,2013-10-21 12:40:00,
2013-10-21 07:41:00,42.8,7.6,24.83,NNE,24,0.0,0.0,23,0.00,,---,0.00,VWS V14.01,2013-10-21 12:41:00,
2013-10-21 07:42:00,42.8,7.6,24.83,NNE,24,0.0,0.0,23,0.00,,---,0.00,VWS V14.01,2013-10-21 12:42:00,
2013-10-21 07:44:00,42.1,7.0,24.83,NNE,24,0.0,0.0,23,0.00,,---,0.00,VWS V14.01,2013-10-21 12:44:00,
2013-10-21 07:46:00,41.9,6.8,24.83,NNE,24,0.0,0.0,23,0.00,,---,0.00,VWS V14.01,2013-10-21 12:46:00,
2013-10-21 07:47:00,41.7,6.7,24.83,NNE,24,0.0,0.0,23,0.00,,---,0.00,VWS V14.01,2013-10-21 12:47:00,
2013-10-21 07:50:00,41.4,6.4,24.86,NNE,24,0.0,0.0,23,0.00,,---,0.00,VWS V14.01,2013-10-21 12:50:00,
2013-10-21 07:51:00,41.2,6.2,24.86,NNE,24,0.0,0.0,23,0.00,,---,0.00,VWS V14.01,2013-10-21 12:51:00,
2013-10-21 07:52:00,41.0,6.1,24.86,NNE,24,0.0,0.0,23,0.00,,---,0.00,VWS V14.01,2013-10-21 12:52:00,
2013-10-21 07:55:00,40.8,5.9,24.86,WNW,295,0.0,0.0,23,0.00,,---,0.00,VWS V14.01,2013-10-21 12:55:00,
2013-10-21 07:56:00,40.6,5.8,24.86,WNW,295,0.0,0.0,23,0.00,,---,0.00,VWS V14.01,2013-10-21 12:56:00,
2013-10-21 07:57:00,40.6,5.8,24.86,WNW,303,0.0,0.0,23,0.00,,---,0.00,VWS V14.01,2013-10-21 12:57:00,
2013-10-21 08:00:00,40.6,5.8,24.86,WNW,303,0.0,0.0,23,0.00,,---,0.00,VWS V14.01,2013-10-21 13:00:00,
2013-10-21 08:01:00,40.6,5.8,24.86,WNW,303,0.0,0.0,23,0.00,,---,0.00,VWS V14.01,2013-10-21 13:01:00,
2013-10-21 08:02:00,40.6,5.8,24.86,WNW,303,0.0,0.0,23,0.00,,---,0.00,VWS V14.01,2013-10-21 13:02:00,
2013-10-21 08:03:00,40.6,5.8,24.86,WNW,303,0.0,0.0,23,0.00,,---,0.00,VWS V14.01,2013-10-21 13:03:00,
2013-10-21 08:05:00,40.5,5.6,24.86,WNW,303,0.0,0.0,23,0.00,,---,0.00,VWS V14.01,2013-10-21 13:05:00,
2013-10-21 08:06:00,40.5,5.6,24.86,WNW,303,0.0,0.0,23,0.00,,---,0.00,VWS V14.01,2013-10-21 13:06:00,
2013-10-21 08:07:00,40.5,5.6,24.86,WNW,303,0.0,0.0,23,0.00,,---,0.00,VWS V14.01,2013-10-21 13:07:00,
2013-10-21 08:08:00,40.5,5.6,24.86,WNW,303,0.0,0.0,23,0.00,,---,0.00,VWS V14.01,2013-10-21 13:08:00,
2013-10-21 08:10:00,40.6,5.8,24.86,NW,304,0.0,0.0,23,0.00,,---,0.00,VWS V14.01,2013-10-21 13:10:00,
2013-10-21 08:11:00,40.6,5.8,24.86,NW,304,0.0,0.0,23,0.00,,---,0.00,VWS V14.01,2013-10-21 13:11:00,
2013-10-21 08:12:00,40.6,5.8,24.86,NW,304,0.0,0.0,23,0.00,,---,0.00,VWS V14.01,2013-10-21 13:12:00,
2013-10-21 08:13:00,40.6,5.8,24.86,NW,304,0.0,0.0,23,0.00,,---,0.00,VWS V14.01,2013-10-21 13:13:00,
2013-10-21 08:15:00,40.6,8.4,24.86,NW,304,0.0,0.0,26,0.00,,---,0.00,VWS V14.01,2013-10-21 13:15:00,
2013-10-21 08:16:00,40.6,8.4,24.86,NW,304,0.0,0.0,26,0.00,,---,0.00,VWS V14.01,2013-10-21 13:16:00,
2013-10-21 08:17:00,40.8,8.6,24.86,NW,304,0.0,0.0,26,0.00,,---,0.00,VWS V14.01,2013-10-21 13:17:00,
2013-10-21 08:18:00,40.8,8.6,24.86,NW,304,0.0,0.0,26,0.00,,---,0.00,VWS V14.01,2013-10-21 13:18:00,
2013-10-21 08:20:00,41.2,8.9,24.86,NW,310,0.0,0.0,26,0.00,,---,0.00,VWS V14.01,2013-10-21 13:20:00,
2013-10-21 08:21:00,41.4,9.1,24.86,NW,310,0.0,0.0,26,0.00,,---,0.00,VWS V14.01,2013-10-21 13:21:00,
2013-10-21 08:23:00,41.5,9.2,24.86,NW,310,0.0,0.0,26,0.00,,---,0.00,VWS V14.01,2013-10-21 13:23:00,
2013-10-21 08:24:00,41.5,9.2,24.86,NW,310,0.0,0.0,26,0.00,,---,0.00,VWS V14.01,2013-10-21 13:24:00,
2013-10-21 08:26:00,41.9,9.5,24.86,NW,318,0.0,0.0,26,0.00,,---,0.00,VWS V14.01,2013-10-21 13:26:00,
2013-10-21 08:28:00,42.3,9.8,24.86,NW,318,0.0,0.0,26,0.00,,---,0.00,VWS V14.01,2013-10-21 13:28:00,
2013-10-21 08:29:00,42.3,9.8,24.86,NW,318,0.0,0.0,26,0.00,,---,0.00,VWS V14.01,2013-10-21 13:29:00,
2013-10-21 08:31:00,43.0,9.6,24.86,NW,318,0.0,0.0,25,0.00,,---,0.00,VWS V14.01,2013-10-21 13:31:00,
2013-10-21 08:32:00,43.0,9.6,24.86,NW,318,0.0,0.0,25,0.00,,---,0.00,VWS V14.01,2013-10-21 13:32:00,
2013-10-21 08:33:00,43.3,9.9,24.86,NW,318,0.0,0.0,25,0.00,,---,0.00,VWS V14.01,2013-10-21 13:33:00,
2013-10-21 08:34:00,43.3,9.9,24.86,NW,318,0.0,0.0,25,0.00,,---,0.00,VWS V14.01,2013-10-21 13:34:00,
2013-10-21 08:36:00,44.2,10.7,24.86,NW,318,0.0,0.0,25,0.00,,---,0.00,VWS V14.01,2013-10-21 13:36:00,
2013-10-21 08:37:00,44.2,10.7,24.86,NW,318,0.0,0.0,25,0.00,,---,0.00,VWS V14.01,2013-10-21 13:37:00,
2013-10-21 08:38:00,44.6,11.0,24.86,NW,318,0.0,0.0,25,0.00,,---,0.00,VWS V14.01,2013-10-21 13:38:00,
2013-10-21 08:39:00,44.8,11.1,24.86,NW,318,0.0,0.0,25,0.00,,---,0.00,VWS V14.01,2013-10-21 13:39:00,
2013-10-21 08:41:00,45.5,11.7,24.86,WNW,301,0.0,0.0,25,0.00,,---,0.00,VWS V14.01,2013-10-21 13:41:00,
2013-10-21 08:42:00,45.7,11.9,24.86,WNW,302,0.0,0.0,25,0.00,,---,0.00,VWS V14.01,2013-10-21 13:42:00,
2013-10-21 08:43:00,45.9,12.0,24.86,WNW,302,0.0,0.0,25,0.00,,---,0.00,VWS V14.01,2013-10-21 13:43:00,
2013-10-21 08:44:00,46.0,12.2,24.86,WNW,302,0.0,0.0,25,0.00,,---,0.00,VWS V14.01,2013-10-21 13:44:00,
2013-10-21 08:45:00,46.2,12.4,24.86,NW,307,0.0,0.0,25,0.00,,---,0.00,VWS V14.01,2013-10-21 13:45:00,
2013-10-21 08:47:00,46.6,11.7,24.86,NW,312,0.0,0.0,24,0.00,,---,0.00,VWS V14.01,2013-10-21 13:47:00,
2013-10-21 08:48:00,46.9,12.1,24.86,NW,326,3.1,3.6,24,0.00,,---,0.00,VWS V14.01,2013-10-21 13:48:00,
2013-10-21 08:49:00,47.1,12.2,24.86,NW,324,3.6,3.6,24,0.00,,---,0.00,VWS V14.01,2013-10-21 13:49:00,
2013-10-21 08:50:00,47.3,12.4,24.86,NW,325,4.0,4.0,24,0.00,,---,0.00,VWS V14.01,2013-10-21 13:50:00,
2013-10-21 08:52:00,47.8,12.8,24.86,NNW,334,4.9,5.4,24,0.00,,---,0.00,VWS V14.01,2013-10-21 13:52:00,
2013-10-21 08:53:00,47.8,12.8,24.86,NNW,334,3.6,5.4,24,0.00,,---,0.00,VWS V14.01,2013-10-21 13:53:00,
2013-10-21 08:54:00,48.4,13.3,24.86,NNW,334,2.7,3.1,24,0.00,,---,0.00,VWS V14.01,2013-10-21 13:54:00,
2013-10-21 08:55:00,48.4,13.3,24.86,NNW,334,2.2,2.2,24,0.00,,---,0.00,VWS V14.01,2013-10-21 13:55:00,
2013-10-21 08:57:00,49.1,13.9,24.86,NNW,334,0.0,0.0,24,0.00,,---,0.00,VWS V14.01,2013-10-21 13:57:00,
2013-10-21 08:58:00,49.3,14.0,24.86,NNW,334,0.0,0.0,24,0.00,,---,0.00,VWS V14.01,2013-10-21 13:58:00,
2013-10-21 08:59:00,49.5,14.2,24.86,NNW,334,0.0,0.0,24,0.00,,---,0.00,VWS V14.01,2013-10-21 13:59:00,
2013-10-21 09:00:00,49.8,14.5,24.86,NNW,334,0.0,0.0,24,0.00,,---,0.00,VWS V14.01,2013-10-21 14:00:00,
2013-10-21 09:01:00,50.0,14.6,24.86,NNW,334,0.0,0.0,24,0.00,,---,0.00,VWS V14.01,2013-10-21 14:01:00,
2013-10-21 09:03:00,50.5,15.1,24.86,NNW,334,0.0,0.0,24,0.00,,---,0.00,VWS V14.01,2013-10-21 14:03:00,
2013-10-21 09:04:00,50.9,15.4,24.86,NNW,334,0.0,0.0,24,0.00,,---,0.00,VWS V14.01,2013-10-21 14:04:00,
2013-10-21 09:05:00,51.4,15.9,24.86,NNW,334,0.0,0.0,24,0.00,,---,0.00,VWS V14.01,2013-10-21 14:05:00,
2013-10-21 09:06:00,51.6,16.0,24.86,NNW,334,0.0,0.0,24,0.00,,---,0.00,VWS V14.01,2013-10-21 14:06:00,
2013-10-21 09:08:00,52.2,15.5,24.86,NNW,334,0.0,0.0,23,0.00,,---,0.00,VWS V14.01,2013-10-21 14:08:00,
2013-10-21 09:09:00,52.5,15.8,24.86,NNW,334,0.0,0.0,23,0.00,,---,0.00,VWS V14.01,2013-10-21 14:09:00,
2013-10-21 09:10:00,53.1,16.3,24.86,NNW,334,0.0,0.0,23,0.00,,---,0.00,VWS V14.01,2013-10-21 14:10:00,
2013-10-21 09:11:00,53.2,16.4,24.86,NNW,334,0.0,0.0,23,0.00,,---,0.00,VWS V14.01,2013-10-21 14:11:00,
2013-10-21 09:12:00,53.6,16.7,24.86,NNW,334,0.0,0.0,23,0.00,,---,0.00,VWS V14.01,2013-10-21 14:12:00,
2013-10-21 09:13:00,54.0,17.0,24.86,NNW,334,0.0,0.0,23,0.00,,---,0.00,VWS V14.01,2013-10-21 14:13:00,
2013-10-21 09:14:00,54.1,17.2,24.86,NNW,334,0.0,0.0,23,0.00,,---,0.00,VWS V14.01,2013-10-21 14:14:00,
2013-10-21 09:15:00,54.7,17.6,24.86,NNW,334,0.0,0.0,23,0.00,,---,0.00,VWS V14.01,2013-10-21 14:15:00,
2013-10-21 09:16:00,54.7,17.6,24.86,NNW,334,0.0,0.0,23,0.00,,---,0.00,VWS V14.01,2013-10-21 14:16:00,
2013-10-21 09:17:00,55.0,17.9,24.86,NNW,334,0.0,0.0,23,0.00,,---,0.00,VWS V14.01,2013-10-21 14:17:00,
2013-10-21 09:18:00,55.2,18.1,24.86,NNW,334,0.0,0.0,23,0.00,,---,0.00,VWS V14.01,2013-10-21 14:18:00,
2013-10-21 09:19:00,55.4,17.2,24.86,NNW,334,0.0,0.0,22,0.00,,---,0.00,VWS V14.01,2013-10-21 14:19:00,
2013-10-21 09:20:00,55.4,17.2,24.86,NNW,334,0.0,0.0,22,0.00,,---,0.00,VWS V14.01,2013-10-21 14:20:00,
2013-10-21 09:21:00,55.8,17.5,24.86,NNW,334,0.0,0.0,22,0.00,,---,0.00,VWS V14.01,2013-10-21 14:21:00,
2013-10-21 09:22:00,56.1,17.8,24.86,NNW,334,0.0,0.0,22,0.00,,---,0.00,VWS V14.01,2013-10-21 14:22:00,
2013-10-21 09:23:00,56.3,18.0,24.86,NNW,334,0.0,0.0,22,0.00,,---,0.00,VWS V14.01,2013-10-21 14:23:00,
2013-10-21 09:24:00,56.7,16.1,24.86,NNW,334,0.0,0.0,20,0.00,,---,0.00,VWS V14.01,2013-10-21 14:24:00,
2013-10-21 09:25:00,56.7,16.1,24.86,NNW,334,0.0,0.0,20,0.00,,---,0.00,VWS V14.01,2013-10-21 14:25:00,
2013-10-21 09:27:00,57.0,16.4,24.86,NNW,334,0.0,0.0,20,0.00,,---,0.00,VWS V14.01,2013-10-21 14:27:00,
2013-10-21 09:28:00,57.0,16.4,24.86,NNW,334,0.0,0.0,20,0.00,,---,0.00,VWS V14.01,2013-10-21 14:28:00,
2013-10-21 09:29:00,57.2,15.3,24.86,NNW,334,0.0,0.0,19,0.00,,---,0.00,VWS V14.01,2013-10-21 14:29:00,
2013-10-21 09:30:00,57.4,15.5,24.86,NNW,334,0.0,0.0,19,0.00,,---,0.00,VWS V14.01,2013-10-21 14:30:00,
2013-10-21 09:32:00,57.7,15.8,24.86,NNW,334,0.0,0.0,19,0.00,,---,0.00,VWS V14.01,2013-10-21 14:32:00,
2013-10-21 09:33:00,57.9,15.9,24.86,NNW,333,0.0,0.0,19,0.00,,---,0.00,VWS V14.01,2013-10-21 14:33:00,
2013-10-21 09:35:00,58.1,16.1,24.89,South,179,3.6,3.6,19,0.00,,---,0.00,VWS V14.01,2013-10-21 14:35:00,
2013-10-21 09:37:00,57.9,15.9,24.89,South,189,3.1,3.1,19,0.00,,---,0.00,VWS V14.01,2013-10-21 14:37:00,
2013-10-21 09:38:00,57.6,15.6,24.89,South,170,3.6,4.5,19,0.00,,---,0.00,VWS V14.01,2013-10-21 14:38:00,
2013-10-21 09:39:00,57.4,15.5,24.89,SSE,159,3.6,3.6,19,0.00,,---,0.00,VWS V14.01,2013-10-21 14:39:00,
2013-10-21 09:40:00,57.2,15.3,24.89,South,174,3.6,4.0,19,0.00,,---,0.00,VWS V14.01,2013-10-21 14:40:00,
2013-10-21 09:42:00,56.7,16.1,24.89,South,185,3.6,3.6,20,0.00,,---,0.00,VWS V14.01,2013-10-21 14:42:00,
2013-10-21 09:44:00,56.5,15.9,24.89,SSW,200,3.1,3.1,20,0.00,,---,0.00,VWS V14.01,2013-10-21 14:44:00,
2013-10-21 09:45:00,56.3,15.8,24.89,South,189,2.7,3.6,20,0.00,,---,0.00,VWS V14.01,2013-10-21 14:45:00,
2013-10-21 09:47:00,56.5,15.9,24.89,South,189,0.0,0.0,20,0.00,,---,0.00,VWS V14.01,2013-10-21 14:47:00,
2013-10-21 09:49:00,56.7,16.1,24.86,South,175,0.0,3.1,20,0.00,,---,0.00,VWS V14.01,2013-10-21 14:49:00,
2013-10-21 09:50:00,56.8,16.2,24.86,South,175,2.2,2.2,20,0.00,,---,0.00,VWS V14.01,2013-10-21 14:50:00,
2013-10-21 09:52:00,57.2,15.3,24.86,ESE,123,3.6,3.6,19,0.00,,---,0.00,VWS V14.01,2013-10-21 14:52:00,
2013-10-21 09:54:00,57.4,15.5,24.86,SE,142,4.0,4.0,19,0.00,,---,0.00,VWS V14.01,2013-10-21 14:54:00,
2013-10-21 09:55:00,57.2,15.3,24.86,SE,142,4.0,4.0,19,0.00,,---,0.00,VWS V14.01,2013-10-21 14:55:00,
2013-10-21 09:56:00,57.2,15.3,24.86,SE,142,4.0,4.0,19,0.00,,---,0.00,VWS V14.01,2013-10-21 14:56:00,
2013-10-21 09:57:00,56.8,16.2,24.86,SE,142,4.0,4.0,20,0.00,,---,0.00,VWS V14.01,2013-10-21 14:57:00,
2013-10-21 09:59:00,56.1,15.6,24.86,East,81,6.3,6.3,20,0.00,,---,0.00,VWS V14.01,2013-10-21 14:59:00,
2013-10-21 10:00:00,55.9,15.5,24.86,East,81,6.3,6.3,20,0.00,,---,0.00,VWS V14.01,2013-10-21 15:00:00,
2013-10-21 10:01:00,55.9,15.5,24.86,ESE,117,6.3,6.3,20,0.00,,---,0.00,VWS V14.01,2013-10-21 15:01:00,
2013-10-21 10:02:00,55.9,15.5,24.86,ESE,117,6.3,6.3,20,0.00,,---,0.00,VWS V14.01,2013-10-21 15:02:00,
2013-10-21 10:06:00,56.1,15.6,24.89,ENE,77,6.3,6.3,20,0.00,,---,0.00,VWS V14.01,2013-10-21 15:06:00,
2013-10-21 10:07:00,56.1,15.6,24.89,ESE,102,7.6,7.6,20,0.00,,---,0.00,VWS V14.01,2013-10-21 15:07:00,
2013-10-21 10:08:00,56.3,15.8,24.89,East,89,6.3,6.3,20,0.00,,---,0.00,VWS V14.01,2013-10-21 15:08:00,
2013-10-21 10:11:00,56.5,15.9,24.89,East,88,8.1,8.1,20,0.00,,---,0.00,VWS V14.01,2013-10-21 15:11:00,
2013-10-21 10:12:00,56.5,15.9,24.89,East,88,8.1,8.1,20,0.00,,---,0.00,VWS V14.01,2013-10-21 15:12:00,
2013-10-21 10:13:00,56.7,16.1,24.89,East,88,8.1,8.1,20,0.00,,---,0.00,VWS V14.01,2013-10-21 15:13:00,
2013-10-21 10:14:00,56.7,16.1,24.89,East,88,8.1,8.1,20,0.00,,---,0.00,VWS V14.01,2013-10-21 15:14:00,
2013-10-21 10:16:00,56.8,16.2,24.89,East,88,8.1,8.1,20,0.00,,---,0.00,VWS V14.01,2013-10-21 15:16:00,
2013-10-21 10:17:00,56.8,16.2,24.89,East,88,8.1,8.1,20,0.00,,---,0.00,VWS V14.01,2013-10-21 15:17:00,
2013-10-21 10:18:00,56.8,16.2,24.89,East,88,8.1,8.1,20,0.00,,---,0.00,VWS V14.01,2013-10-21 15:18:00,
2013-10-21 10:19:00,56.8,16.2,24.89,East,88,8.1,8.1,20,0.00,,---,0.00,VWS V14.01,2013-10-21 15:19:00,
2013-10-21 10:22:00,57.2,15.3,24.89,East,88,8.1,8.1,19,0.00,,---,0.00,VWS V14.01,2013-10-21 15:22:00,
2013-10-21 10:24:00,57.6,15.6,24.89,East,88,8.1,8.1,19,0.00,,---,0.00,VWS V14.01,2013-10-21 15:24:00,
2013-10-21 10:25:00,57.7,15.8,24.89,East,88,8.1,8.1,19,0.00,,---,0.00,VWS V14.01,2013-10-21 15:25:00,
2013-10-21 10:27:00,57.7,15.8,24.89,East,88,8.1,8.1,19,0.00,,---,0.00,VWS V14.01,2013-10-21 15:27:00,
2013-10-21 10:29:00,57.7,15.8,24.89,East,88,8.1,8.1,19,0.00,,---,0.00,VWS V14.01,2013-10-21 15:29:00,
2013-10-21 10:30:00,57.7,15.8,24.89,East,88,8.1,8.1,19,0.00,,---,0.00,VWS V14.01,2013-10-21 15:30:00,
2013-10-21 10:32:00,57.9,15.9,24.89,East,88,8.1,8.1,19,0.00,,---,0.00,VWS V14.01,2013-10-21 15:32:00,
2013-10-21 10:34:00,58.1,16.1,24.89,East,88,8.1,8.1,19,0.00,,---,0.00,VWS V14.01,2013-10-21 15:34:00,
2013-10-21 10:35:00,58.1,16.1,24.89,East,88,8.1,8.1,19,0.00,,---,0.00,VWS V14.01,2013-10-21 15:35:00,
2013-10-21 10:36:00,58.3,16.2,24.89,East,88,8.1,8.1,19,0.00,,---,0.00,VWS V14.01,2013-10-21 15:36:00,
2013-10-21 10:37:00,58.3,16.2,24.89,East,88,8.1,8.1,19,0.00,,---,0.00,VWS V14.01,2013-10-21 15:37:00,
2013-10-21 10:39:00,58.3,16.2,24.89,East,98,8.7,8.7,19,0.00,,---,0.00,VWS V14.01,2013-10-21 15:39:00,
2013-10-21 10:40:00,58.3,16.2,24.89,East,98,8.7,8.7,19,0.00,,---,0.00,VWS V14.01,2013-10-21 15:40:00,
2013-10-21 10:41:00,58.5,16.4,24.89,ENE,77,8.1,10.1,19,0.00,,---,0.00,VWS V14.01,2013-10-21 15:41:00,
2013-10-21 10:42:00,58.5,16.4,24.89,East,85,9.2,9.2,19,0.00,,---,0.00,VWS V14.01,2013-10-21 15:42:00,
2013-10-21 10:43:00,58.5,16.4,24.89,East,87,8.7,12.8,19,0.00,,---,0.00,VWS V14.01,2013-10-21 15:43:00,
2013-10-21 10:44:00,58.5,16.4,24.89,East,95,8.1,8.7,19,0.00,,---,0.00,VWS V14.01,2013-10-21 15:44:00,
2013-10-21 10:46:00,58.3,16.2,24.89,East,86,10.1,10.1,19,0.00,,---,0.00,VWS V14.01,2013-10-21 15:46:00,
2013-10-21 10:47:00,58.1,16.1,24.89,East,86,10.1,10.1,19,0.00,,---,0.00,VWS V14.01,2013-10-21 15:47:00,
2013-10-21 10:48:00,58.1,16.1,24.89,East,87,8.1,10.1,19,0.00,,---,0.00,VWS V14.01,2013-10-21 15:48:00,
2013-10-21 10:49:00,58.1,16.1,24.89,East,87,8.1,8.1,19,0.00,,---,0.00,VWS V14.01,2013-10-21 15:49:00,
2013-10-21 10:50:00,58.1,16.1,24.89,ESE,115,7.6,8.7,19,0.00,,---,0.00,VWS V14.01,2013-10-21 15:50:00,
2013-10-21 10:51:00,58.1,16.1,24.89,ESE,115,7.6,7.6,19,0.00,,---,0.00,VWS V14.01,2013-10-21 15:51:00,
2013-10-21 10:54:00,58.1,16.1,24.89,ESE,109,8.1,11.0,19,0.00,,---,0.00,VWS V14.01,2013-10-21 15:54:00,
2013-10-21 10:57:00,57.7,15.8,24.89,East,100,6.3,6.3,19,0.00,,---,0.00,VWS V14.01,2013-10-21 15:57:00,
2013-10-21 10:58:00,57.7,15.8,24.89,ESE,109,8.1,8.1,19,0.00,,---,0.00,VWS V14.01,2013-10-21 15:58:00,
2013-10-21 10:59:00,57.9,15.9,24.89,East,96,8.1,8.1,19,0.00,,---,0.00,VWS V14.01,2013-10-21 15:59:00,
2013-10-21 11:02:00,58.3,16.2,24.89,East,87,8.3,8.3,19,0.00,,---,0.00,VWS V14.01,2013-10-21 16:02:00,
2013-10-21 11:03:00,58.5,16.4,24.89,ENE,76,7.6,10.1,19,0.00,,---,0.00,VWS V14.01,2013-10-21 16:03:00,
2013-10-21 11:05:00,58.8,16.7,24.92,ENE,74,8.3,8.3,19,0.00,,---,0.00,VWS V14.01,2013-10-21 16:05:00,
2013-10-21 11:08:00,58.8,16.7,24.92,ESE,103,7.6,7.6,19,0.00,,---,0.00,VWS V14.01,2013-10-21 16:08:00,
2013-10-21 11:09:00,58.6,16.5,24.92,ESE,119,8.1,8.3,19,0.00,,---,0.00,VWS V14.01,2013-10-21 16:09:00,
2013-10-21 11:10:00,58.5,16.4,24.92,ESE,113,6.3,6.3,19,0.00,,---,0.00,VWS V14.01,2013-10-21 16:10:00,
2013-10-21 11:11:00,58.5,16.4,24.92,ENE,68,7.6,10.1,19,0.00,,---,0.00,VWS V14.01,2013-10-21 16:11:00,
2013-10-21 11:15:00,58.6,16.5,24.92,East,91,5.8,12.3,19,0.00,,---,0.00,VWS V14.01,2013-10-21 16:15:00,
2013-10-21 11:16:00,58.8,16.7,24.92,East,94,7.6,10.5,19,0.00,,---,0.00,VWS V14.01,2013-10-21 16:16:00,
2013-10-21 11:17:00,58.8,16.7,24.92,East,91,7.2,10.5,19,0.00,,---,0.00,VWS V14.01,2013-10-21 16:17:00,
2013-10-21 11:18:00,59.0,16.8,24.92,East,88,8.3,8.3,19,0.00,,---,0.00,VWS V14.01,2013-10-21 16:18:00,
2013-10-21 11:20:00,59.2,17.0,24.92,East,91,7.6,8.3,19,0.00,,---,0.00,VWS V14.01,2013-10-21 16:20:00,
2013-10-21 11:22:00,59.4,17.1,24.92,East,93,8.3,10.1,19,0.00,,---,0.00,VWS V14.01,2013-10-21 16:22:00,
2013-10-21 11:23:00,59.5,17.3,24.92,East,85,8.1,8.1,19,0.00,,---,0.00,VWS V14.01,2013-10-21 16:23:00,
2013-10-21 11:24:00,59.5,17.3,24.92,East,85,8.1,8.1,19,0.00,,---,0.00,VWS V14.01,2013-10-21 16:24:00,
2013-10-21 11:25:00,59.7,17.4,24.92,East,101,8.1,8.1,19,0.00,,---,0.00,VWS V14.01,2013-10-21 16:25:00,
2013-10-21 11:27:00,59.9,17.6,24.92,ESE,104,4.9,8.3,19,0.00,,---,0.00,VWS V14.01,2013-10-21 16:27:00,
2013-10-21 11:28:00,59.9,17.6,24.92,East,92,9.2,9.2,19,0.00,,---,0.00,VWS V14.01,2013-10-21 16:28:00,
2013-10-21 11:30:00,60.1,17.7,24.92,ENE,68,7.2,8.1,19,0.00,,---,0.00,VWS V14.01,2013-10-21 16:30:00,
2013-10-21 11:31:00,60.1,17.7,24.92,ENE,75,7.6,7.6,19,0.00,,---,0.00,VWS V14.01,2013-10-21 16:31:00,
2013-10-21 11:33:00,60.6,18.2,24.92,East,92,8.1,10.1,19,0.00,,---,0.00,VWS V14.01,2013-10-21 16:33:00,
2013-10-21 11:34:00,60.6,18.2,24.92,ESE,113,5.8,10.1,19,0.00,,---,0.00,VWS V14.01,2013-10-21 16:34:00,
2013-10-21 11:37:00,60.8,18.3,24.92,East,79,6.7,7.6,19,0.00,,---,0.00,VWS V14.01,2013-10-21 16:37:00,
2013-10-21 11:38:00,60.8,18.3,24.92,East,87,6.3,6.7,19,0.00,,---,0.00,VWS V14.01,2013-10-21 16:38:00,
2013-10-21 11:39:00,61.0,18.5,24.92,ESE,122,7.6,9.2,19,0.00,,---,0.00,VWS V14.01,2013-10-21 16:39:00,
2013-10-21 11:42:00,60.8,18.3,24.92,ESE,113,6.7,6.7,19,0.00,,---,0.00,VWS V14.01,2013-10-21 16:42:00,
2013-10-21 11:43:00,60.8,18.3,24.92,SE,124,9.6,10.5,19,0.00,,---,0.00,VWS V14.01,2013-10-21 16:43:00,
2013-10-21 11:44:00,60.8,18.3,24.92,SE,124,9.6,9.6,19,0.00,,---,0.00,VWS V14.01,2013-10-21 16:44:00,
2013-10-21 11:46:00,60.6,18.2,24.92,ESE,114,7.2,7.2,19,0.00,,---,0.00,VWS V14.01,2013-10-21 16:46:00,
2013-10-21 11:47:00,60.8,18.3,24.92,East,93,7.6,7.6,19,0.00,,---,0.00,VWS V14.01,2013-10-21 16:47:00,
2013-10-21 11:48:00,60.8,18.3,24.92,East,93,7.6,7.6,19,0.00,,---,0.00,VWS V14.01,2013-10-21 16:48:00,
2013-10-21 11:51:00,61.3,18.8,24.92,East,95,6.3,8.1,19,0.00,,---,0.00,VWS V14.01,2013-10-21 16:51:00,
2013-10-21 11:53:00,61.3,18.8,24.92,ESE,113,8.3,8.3,19,0.00,,---,0.00,VWS V14.01,2013-10-21 16:53:00,
2013-10-21 11:58:00,61.3,18.8,24.92,East,95,7.6,8.1,19,0.00,,---,0.00,VWS V14.01,2013-10-21 16:58:00,
2013-10-21 11:59:00,61.3,18.8,24.92,ESE,120,7.6,8.1,19,0.00,,---,0.00,VWS V14.01,2013-10-21 16:59:00,
2013-10-21 12:04:00,61.3,18.8,24.92,East,90,8.7,8.7,19,0.00,,---,0.00,VWS V14.01,2013-10-21 17:04:00,
2013-10-21 12:05:00,61.3,18.8,24.92,East,82,8.7,9.6,19,0.00,,---,0.00,VWS V14.01,2013-10-21 17:05:00,
2013-10-21 12:08:00,61.5,18.9,24.92,ESE,117,8.3,8.3,19,0.00,,---,0.00,VWS V14.01,2013-10-21 17:08:00,
2013-10-21 12:09:00,61.5,18.9,24.92,SE,127,7.6,8.3,19,0.00,,---,0.00,VWS V14.01,2013-10-21 17:09:00,
2013-10-21 12:11:00,61.5,18.9,24.92,ESE,115,7.6,8.1,19,0.00,,---,0.00,VWS V14.01,2013-10-21 17:11:00,
2013-10-21 12:13:00,61.9,19.2,24.92,ESE,114,8.1,8.1,19,0.00,,---,0.00,VWS V14.01,2013-10-21 17:13:00,
2013-10-21 12:14:00,62.1,19.3,24.92,ESE,114,8.1,8.1,19,0.00,,---,0.00,VWS V14.01,2013-10-21 17:14:00,
2013-10-21 12:15:00,62.2,19.5,24.92,ENE,68,5.8,7.6,19,0.00,,---,0.00,VWS V14.01,2013-10-21 17:15:00,
2013-10-21 12:16:00,62.2,19.5,24.92,ESE,110,8.1,8.1,19,0.00,,---,0.00,VWS V14.01,2013-10-21 17:16:00,
2013-10-21 12:19:00,62.2,19.5,24.92,SE,136,5.4,5.8,19,0.00,,---,0.00,VWS V14.01,2013-10-21 17:19:00,
2013-10-21 12:20:00,62.2,19.5,24.92,ESE,115,8.1,10.1,19,0.00,,---,0.00,VWS V14.01,2013-10-21 17:20:00,
2013-10-21 12:21:00,62.2,19.5,24.92,East,83,8.3,8.3,19,0.00,,---,0.00,VWS V14.01,2013-10-21 17:21:00,
2013-10-21 12:23:00,62.4,19.6,24.92,East,79,11.0,11.0,19,0.00,,---,0.00,VWS V14.01,2013-10-21 17:23:00,
2013-10-21 12:25:00,62.8,18.7,24.92,ESE,115,6.7,6.7,18,0.00,,---,0.00,VWS V14.01,2013-10-21 17:25:00,
2013-10-21 12:26:00,62.8,18.7,24.92,ESE,103,5.8,6.7,18,0.00,,---,0.00,VWS V14.01,2013-10-21 17:26:00,
2013-10-21 12:27:00,63.0,18.8,24.92,ESE,105,5.8,8.1,18,0.00,,---,0.00,VWS V14.01,2013-10-21 17:27:00,
2013-10-21 12:28:00,63.0,18.8,24.92,ESE,110,8.3,11.0,18,0.00,,---,0.00,VWS V14.01,2013-10-21 17:28:00,
2013-10-21 12:29:00,63.0,18.8,24.92,ESE,107,7.6,11.0,18,0.00,,---,0.00,VWS V14.01,2013-10-21 17:29:00,
2013-10-21 12:32:00,62.6,18.5,24.92,ESE,120,8.3,9.2,18,0.00,,---,0.00,VWS V14.01,2013-10-21 17:32:00,
2013-10-21 12:34:00,62.6,18.5,24.92,SE,127,10.5,10.5,18,0.00,,---,0.00,VWS V14.01,2013-10-21 17:34:00,
2013-10-21 12:36:00,62.4,19.6,24.92,ESE,103,6.3,8.3,19,0.00,,---,0.00,VWS V14.01,2013-10-21 17:36:00,
2013-10-21 12:37:00,62.4,19.6,24.92,ESE,109,6.3,6.3,19,0.00,,---,0.00,VWS V14.01,2013-10-21 17:37:00,
2013-10-21 12:39:00,62.6,18.5,24.92,ESE,106,5.8,8.1,18,0.00,,---,0.00,VWS V14.01,2013-10-21 17:39:00,
2013-10-21 12:42:00,62.6,18.5,24.92,SSE,152,8.1,8.3,18,0.00,,---,0.00,VWS V14.01,2013-10-21 17:42:00,
2013-10-21 12:43:00,62.6,18.5,24.92,ESE,122,8.7,8.7,18,0.00,,---,0.00,VWS V14.01,2013-10-21 17:43:00,
2013-10-21 12:44:00,62.6,18.5,24.92,SE,125,8.3,9.2,18,0.00,,---,0.00,VWS V14.01,2013-10-21 17:44:00,
2013-10-21 12:48:00,62.6,18.5,24.92,SE,140,6.3,10.5,18,0.00,,---,0.00,VWS V14.01,2013-10-21 17:48:00,
2013-10-21 12:49:00,62.8,18.7,24.92,SE,126,4.0,8.7,18,0.00,,---,0.00,VWS V14.01,2013-10-21 17:49:00,
2013-10-21 12:51:00,63.1,19.0,24.92,SE,128,8.1,8.1,18,0.00,,---,0.00,VWS V14.01,2013-10-21 17:51:00,
2013-10-21 12:55:00,63.9,19.6,24.92,ESE,111,5.8,9.6,18,0.00,,---,0.00,VWS V14.01,2013-10-21 17:55:00,
2013-10-21 12:57:00,64.2,19.9,24.92,ESE,110,6.3,6.3,18,0.00,,---,0.00,VWS V14.01,2013-10-21 17:57:00,
2013-10-21 12:58:00,64.4,20.0,24.92,SE,124,8.3,8.3,18,0.00,,---,0.00,VWS V14.01,2013-10-21 17:58:00,
2013-10-21 12:59:00,64.4,20.0,24.92,SSE,149,8.7,8.7,18,0.00,,---,0.00,VWS V14.01,2013-10-21 17:59:00,
2013-10-21 13:01:00,64.2,19.9,24.92,SE,124,6.3,8.7,18,0.00,,---,0.00,VWS V14.01,2013-10-21 18:01:00,
2013-10-21 13:02:00,64.0,19.7,24.92,East,87,4.0,6.3,18,0.00,,---,0.00,VWS V14.01,2013-10-21 18:02:00,
2013-10-21 13:03:00,64.2,19.9,24.92,East,97,5.4,6.3,18,0.00,,---,0.00,VWS V14.01,2013-10-21 18:03:00,
2013-10-21 13:04:00,64.2,19.9,24.92,SSE,162,4.0,6.3,18,0.00,,---,0.00,VWS V14.01,2013-10-21 18:04:00,
2013-10-21 13:06:00,64.8,20.3,24.92,East,90,10.1,10.1,18,0.00,,---,0.00,VWS V14.01,2013-10-21 18:06:00,
2013-10-21 13:07:00,64.8,20.3,24.92,ESE,103,8.1,10.1,18,0.00,,---,0.00,VWS V14.01,2013-10-21 18:07:00,
2013-10-21 13:08:00,64.8,20.3,24.92,SE,124,9.6,9.6,18,0.00,,---,0.00,VWS V14.01,2013-10-21 18:08:00,
2013-10-21 13:09:00,64.6,20.1,24.92,ESE,107,5.8,6.3,18,0.00,,---,0.00,VWS V14.01,2013-10-21 18:09:00,
2013-10-21 13:10:00,64.6,20.1,24.92,East,80,5.4,6.7,18,0.00,,---,0.00,VWS V14.01,2013-10-21 18:10:00,
2013-10-21 13:11:00,64.8,20.3,24.92,ESE,108,7.6,8.3,18,0.00,,---,0.00,VWS V14.01,2013-10-21 18:11:00,
2013-10-21 13:13:00,64.9,20.4,24.92,SSE,162,5.4,8.1,18,0.00,,---,0.00,VWS V14.01,2013-10-21 18:13:00,
2013-10-21 13:14:00,64.9,20.4,24.92,East,97,6.3,6.3,18,0.00,,---,0.00,VWS V14.01,2013-10-21 18:14:00,
2013-10-21 13:15:00,65.1,20.6,24.92,ESE,104,4.9,8.3,18,0.00,,---,0.00,VWS V14.01,2013-10-21 18:15:00,
2013-10-21 13:17:00,65.5,20.9,24.92,ESE,118,5.4,5.8,18,0.00,,---,0.00,VWS V14.01,2013-10-21 18:17:00,
2013-10-21 13:18:00,65.7,21.0,24.92,ESE,116,8.3,8.3,18,0.00,,---,0.00,VWS V14.01,2013-10-21 18:18:00,
2013-10-21 13:19:00,65.8,21.2,24.92,SSE,155,6.7,6.7,18,0.00,,---,0.00,VWS V14.01,2013-10-21 18:19:00,
2013-10-21 13:22:00,66.0,21.3,24.92,SE,133,4.0,5.8,18,0.00,,---,0.00,VWS V14.01,2013-10-21 18:22:00,
2013-10-21 13:23:00,66.0,21.3,24.92,ESE,114,8.7,8.7,18,0.00,,---,0.00,VWS V14.01,2013-10-21 18:23:00,
2013-10-21 13:24:00,65.8,21.2,24.92,SE,128,8.1,8.3,18,0.00,,---,0.00,VWS V14.01,2013-10-21 18:24:00,
2013-10-21 13:27:00,65.8,21.2,24.92,ESE,110,7.6,7.6,18,0.00,,---,0.00,VWS V14.01,2013-10-21 18:27:00,
2013-10-21 13:28:00,66.0,21.3,24.92,SSE,158,8.3,8.3,18,0.00,,---,0.00,VWS V14.01,2013-10-21 18:28:00,
2013-10-21 13:29:00,66.0,21.3,24.92,East,100,6.3,8.3,18,0.00,,---,0.00,VWS V14.01,2013-10-21 18:29:00,
2013-10-21 13:30:00,66.0,21.3,24.92,East,93,7.6,7.6,18,0.00,,---,0.00,VWS V14.01,2013-10-21 18:30:00,
2013-10-21 13:33:00,66.2,20.1,24.92,SSE,165,6.3,7.6,17,0.00,,---,0.00,VWS V14.01,2013-10-21 18:33:00,
2013-10-21 13:34:00,66.2,20.1,24.92,ESE,117,10.5,10.5,17,0.00,,---,0.00,VWS V14.01,2013-10-21 18:34:00,
2013-10-21 13:35:00,66.2,20.1,24.92,SSE,155,10.5,10.5,17,0.00,,---,0.00,VWS V14.01,2013-10-21 18:35:00,
2013-10-21 13:38:00,65.7,21.0,24.92,SE,134,10.5,15.0,18,0.00,,---,0.00,VWS V14.01,2013-10-21 18:38:00,
2013-10-21 13:39:00,65.7,21.0,24.92,ESE,117,8.1,12.8,18,0.00,,---,0.00,VWS V14.01,2013-10-21 18:39:00,
2013-10-21 13:40:00,65.5,20.9,24.92,ESE,112,14.5,14.5,18,0.00,,---,0.00,VWS V14.01,2013-10-21 18:40:00,
2013-10-21 13:43:00,65.1,20.6,24.92,SE,130,8.7,8.7,18,0.00,,---,0.00,VWS V14.01,2013-10-21 18:43:00,
2013-10-21 13:44:00,65.1,20.6,24.92,ESE,121,8.3,8.3,18,0.00,,---,0.00,VWS V14.01,2013-10-21 18:44:00,
2013-10-21 13:46:00,65.3,20.7,24.92,ESE,103,6.3,10.5,18,0.00,,---,0.00,VWS V14.01,2013-10-21 18:46:00,
2013-10-21 13:48:00,65.5,20.9,24.92,SE,126,12.8,12.8,18,0.00,,---,0.00,VWS V14.01,2013-10-21 18:48:00,
2013-10-21 13:49:00,65.5,20.9,24.92,SE,132,5.4,12.8,18,0.00,,---,0.00,VWS V14.01,2013-10-21 18:49:00,
2013-10-21 13:51:00,65.7,21.0,24.92,ESE,103,5.8,8.3,18,0.00,,---,0.00,VWS V14.01,2013-10-21 18:51:00,
2013-10-21 13:54:00,65.7,21.0,24.92,East,97,9.2,10.5,18,0.00,,---,0.00,VWS V14.01,2013-10-21 18:54:00,
2013-10-21 13:55:00,65.5,20.9,24.92,ESE,118,10.5,10.5,18,0.00,,---,0.00,VWS V14.01,2013-10-21 18:55:00,
2013-10-21 13:56:00,65.3,20.7,24.92,East,91,8.3,8.3,18,0.00,,---,0.00,VWS V14.01,2013-10-21 18:56:00,
2013-10-21 13:59:00,65.5,20.9,24.92,ESE,121,7.2,8.1,18,0.00,,---,0.00,VWS V14.01,2013-10-21 18:59:00,
2013-10-21 14:00:00,65.7,21.0,24.92,East,92,7.6,8.1,18,0.00,,---,0.00,VWS V14.01,2013-10-21 19:00:00,
2013-10-21 14:01:00,66.0,21.3,24.92,ESE,114,5.8,7.6,18,0.00,,---,0.00,VWS V14.01,2013-10-21 19:01:00,
2013-10-21 14:05:00,66.7,20.6,24.89,East,83,8.3,12.3,17,0.00,,---,0.00,VWS V14.01,2013-10-21 19:05:00,
2013-10-21 14:06:00,66.9,20.7,24.89,ESE,105,10.5,10.5,17,0.00,,---,0.00,VWS V14.01,2013-10-21 19:06:00,
2013-10-21 14:07:00,66.9,20.7,24.89,ESE,106,8.3,10.5,17,0.00,,---,0.00,VWS V14.01,2013-10-21 19:07:00,
2013-10-21 14:11:00,67.3,21.0,24.89,ESE,109,9.6,10.5,17,0.00,,---,0.00,VWS V14.01,2013-10-21 19:11:00,
2013-10-21 14:12:00,67.1,20.9,24.89,East,81,10.1,11.0,17,0.00,,---,0.00,VWS V14.01,2013-10-21 19:12:00,
2013-10-21 14:16:00,67.5,21.2,24.89,East,85,6.3,10.5,17,0.00,,---,0.00,VWS V14.01,2013-10-21 19:16:00,
2013-10-21 14:17:00,67.6,21.3,24.89,East,95,10.5,10.5,17,0.00,,---,0.00,VWS V14.01,2013-10-21 19:17:00,
2013-10-21 14:18:00,67.8,21.5,24.89,ESE,105,10.1,10.5,17,0.00,,---,0.00,VWS V14.01,2013-10-21 19:18:00,
2013-10-21 14:22:00,68.0,21.6,24.89,East,86,12.3,12.3,17,0.00,,---,0.00,VWS V14.01,2013-10-21 19:22:00,
2013-10-21 14:23:00,68.2,21.7,24.89,East,97,12.8,12.8,17,0.00,,---,0.00,VWS V14.01,2013-10-21 19:23:00,
2013-10-21 14:24:00,68.0,21.6,24.89,East,89,11.0,11.0,17,0.00,,---,0.00,VWS V14.01,2013-10-21 19:24:00,
2013-10-21 14:27:00,67.6,21.3,24.89,ESE,115,10.1,10.5,17,0.00,,---,0.00,VWS V14.01,2013-10-21 19:27:00,
2013-10-21 14:29:00,67.8,21.5,24.89,ESE,106,10.1,10.1,17,0.00,,---,0.00,VWS V14.01,2013-10-21 19:29:00,
2013-10-21 14:30:00,67.8,21.5,24.89,ESE,117,8.7,10.5,17,0.00,,---,0.00,VWS V14.01,2013-10-21 19:30:00,
2013-10-21 14:32:00,68.0,21.6,24.89,ENE,78,10.1,11.0,17,0.00,,---,0.00,VWS V14.01,2013-10-21 19:32:00,
2013-10-21 14:33:00,68.0,21.6,24.89,ENE,78,10.1,11.0,17,0.00,,---,0.00,VWS V14.01,2013-10-21 19:33:00,
2013-10-21 14:34:00,68.0,21.6,24.89,ESE,102,5.8,8.1,17,0.00,,---,0.00,VWS V14.01,2013-10-21 19:34:00,
2013-10-21 14:35:00,68.0,21.6,24.89,East,90,10.1,10.5,17,0.00,,---,0.00,VWS V14.01,2013-10-21 19:35:00,
2013-10-21 14:36:00,68.2,21.7,24.89,East,83,11.0,11.0,17,0.00,,---,0.00,VWS V14.01,2013-10-21 19:36:00,
2013-10-21 14:38:00,68.2,21.7,24.89,East,89,7.6,12.3,17,0.00,,---,0.00,VWS V14.01,2013-10-21 19:38:00,
2013-10-21 14:41:00,68.4,21.9,24.89,East,93,8.7,8.7,17,0.00,,---,0.00,VWS V14.01,2013-10-21 19:41:00,
2013-10-21 14:42:00,68.5,22.0,24.89,ESE,102,8.7,10.1,17,0.00,,---,0.00,VWS V14.01,2013-10-21 19:42:00,
2013-10-21 14:43:00,68.4,21.9,24.89,East,83,5.8,13.2,17,0.00,,---,0.00,VWS V14.01,2013-10-21 19:43:00,
2013-10-21 14:46:00,68.7,22.2,24.89,ENE,69,7.6,8.1,17,0.00,,---,0.00,VWS V14.01,2013-10-21 19:46:00,
2013-10-21 14:47:00,68.7,22.2,24.89,East,94,10.5,12.8,17,0.00,,---,0.00,VWS V14.01,2013-10-21 19:47:00,
2013-10-21 14:49:00,68.7,22.2,24.89,East,88,3.6,8.7,17,0.00,,---,0.00,VWS V14.01,2013-10-21 19:49:00,
2013-10-21 14:50:00,68.7,22.2,24.89,ENE,73,9.6,9.6,17,0.00,,---,0.00,VWS V14.01,2013-10-21 19:50:00,
2013-10-21 14:51:00,68.7,22.2,24.89,East,87,7.6,9.6,17,0.00,,---,0.00,VWS V14.01,2013-10-21 19:51:00,
2013-10-21 14:52:00,68.7,22.2,24.89,ESE,110,8.3,8.3,17,0.00,,---,0.00,VWS V14.01,2013-10-21 19:52:00,
2013-10-21 14:54:00,68.7,22.2,24.89,East,95,6.3,8.7,17,0.00,,---,0.00,VWS V14.01,2013-10-21 19:54:00,
2013-10-21 14:55:00,68.5,22.0,24.89,East,82,6.3,8.1,17,0.00,,---,0.00,VWS V14.01,2013-10-21 19:55:00,
2013-10-21 14:56:00,68.7,22.2,24.89,North,6,3.6,7.6,17,0.00,,---,0.00,VWS V14.01,2013-10-21 19:56:00,
2013-10-21 14:57:00,68.7,22.2,24.89,NNW,334,5.4,6.3,17,0.00,,---,0.00,VWS V14.01,2013-10-21 19:57:00,
2013-10-21 14:59:00,68.7,22.2,24.89,NE,47,5.8,5.8,17,0.00,,---,0.00,VWS V14.01,2013-10-21 19:59:00,
2013-10-21 15:00:00,68.7,22.2,24.89,ENE,68,8.1,8.3,17,0.00,,---,0.00,VWS V14.01,2013-10-21 20:00:00,
2013-10-21 15:02:00,68.9,22.3,24.89,East,90,10.1,10.1,17,0.00,,---,0.00,VWS V14.01,2013-10-21 20:02:00,
2013-10-21 15:05:00,69.1,22.5,24.89,East,81,7.6,10.1,17,0.00,,---,0.00,VWS V14.01,2013-10-21 20:05:00,
2013-10-21 15:07:00,68.9,22.3,24.89,East,81,12.8,12.8,17,0.00,,---,0.00,VWS V14.01,2013-10-21 20:07:00,
2013-10-21 15:08:00,68.7,22.2,24.89,ENE,78,14.1,14.1,17,0.00,,---,0.00,VWS V14.01,2013-10-21 20:08:00,
2013-10-21 15:10:00,68.5,22.0,24.89,East,92,8.1,10.5,17,0.00,,---,0.00,VWS V14.01,2013-10-21 20:10:00,
2013-10-21 15:12:00,68.0,21.6,24.89,East,81,8.1,8.1,17,0.00,,---,0.00,VWS V14.01,2013-10-21 20:12:00,
2013-10-21 15:15:00,67.8,21.5,24.89,ENE,76,9.2,10.1,17,0.00,,---,0.00,VWS V14.01,2013-10-21 20:15:00,
2013-10-21 15:16:00,67.8,21.5,24.89,East,86,11.0,11.0,17,0.00,,---,0.00,VWS V14.01,2013-10-21 20:16:00,
2013-10-21 15:21:00,67.6,21.3,24.89,East,90,10.5,10.5,17,0.00,,---,0.00,VWS V14.01,2013-10-21 20:21:00,
2013-10-21 15:22:00,67.6,21.3,24.89,East,97,8.1,10.5,17,0.00,,---,0.00,VWS V14.01,2013-10-21 20:22:00,
2013-10-21 15:23:00,67.6,21.3,24.89,East,83,10.5,10.5,17,0.00,,---,0.00,VWS V14.01,2013-10-21 20:23:00,
2013-10-21 15:24:00,67.6,21.3,24.89,ESE,102,5.8,11.9,17,0.00,,---,0.00,VWS V14.01,2013-10-21 20:24:00,
2013-10-21 15:26:00,67.6,21.3,24.89,NE,56,8.1,8.3,17,0.00,,---,0.00,VWS V14.01,2013-10-21 20:26:00,
2013-10-21 15:27:00,67.6,21.3,24.89,ENE,72,5.4,8.3,17,0.00,,---,0.00,VWS V14.01,2013-10-21 20:27:00,
2013-10-21 15:28:00,67.6,21.3,24.89,ENE,66,8.7,8.7,17,0.00,,---,0.00,VWS V14.01,2013-10-21 20:28:00,
2013-10-21 15:29:00,67.6,21.3,24.89,East,96,5.8,8.7,17,0.00,,---,0.00,VWS V14.01,2013-10-21 20:29:00,
2013-10-21 15:31:00,67.6,21.3,24.89,East,84,9.2,13.2,17,0.00,,---,0.00,VWS V14.01,2013-10-21 20:31:00,
2013-10-21 15:32:00,67.6,21.3,24.89,East,96,8.1,8.1,17,0.00,,---,0.00,VWS V14.01,2013-10-21 20:32:00,
2013-10-21 15:33:00,67.6,21.3,24.89,East,82,10.1,10.1,17,0.00,,---,0.00,VWS V14.01,2013-10-21 20:33:00,
2013-10-21 15:34:00,67.6,21.3,24.89,ENE,62,8.3,10.1,17,0.00,,---,0.00,VWS V14.01,2013-10-21 20:34:00,
2013-10-21 15:36:00,67.5,21.2,24.89,East,90,8.1,8.1,17,0.00,,---,0.00,VWS V14.01,2013-10-21 20:36:00,
2013-10-21 15:37:00,67.6,21.3,24.89,East,80,10.5,11.0,17,0.00,,---,0.00,VWS V14.01,2013-10-21 20:37:00,
2013-10-21 15:38:00,67.6,21.3,24.89,ENE,64,8.1,12.3,17,0.00,,---,0.00,VWS V14.01,2013-10-21 20:38:00,
2013-10-21 15:39:00,67.5,21.2,24.89,ESE,116,8.7,8.7,17,0.00,,---,0.00,VWS V14.01,2013-10-21 20:39:00,
2013-10-21 15:41:00,67.5,21.2,24.89,East,82,8.7,10.1,17,0.00,,---,0.00,VWS V14.01,2013-10-21 20:41:00,
2013-10-21 15:42:00,67.5,21.2,24.89,East,92,8.1,8.3,17,0.00,,---,0.00,VWS V14.01,2013-10-21 20:42:00,
2013-10-21 15:44:00,67.5,21.2,24.89,East,92,8.3,8.3,17,0.00,,---,0.00,VWS V14.01,2013-10-21 20:44:00,
2013-10-21 15:45:00,67.5,21.2,24.89,ESE,103,8.7,8.7,17,0.00,,---,0.00,VWS V14.01,2013-10-21 20:45:00,
2013-10-21 15:47:00,67.3,21.0,24.89,ESE,117,8.1,8.1,17,0.00,,---,0.00,VWS V14.01,2013-10-21 20:47:00,
2013-10-21 15:49:00,67.3,21.0,24.89,ENE,74,5.8,8.1,17,0.00,,---,0.00,VWS V14.01,2013-10-21 20:49:00,
2013-10-21 15:50:00,67.3,21.0,24.89,ENE,71,6.3,6.3,17,0.00,,---,0.00,VWS V14.01,2013-10-21 20:50:00,
2013-10-21 15:51:00,67.3,21.0,24.89,East,90,8.3,8.3,17,0.00,,---,0.00,VWS V14.01,2013-10-21 20:51:00,
2013-10-21 15:54:00,67.3,21.0,24.89,East,90,8.3,8.3,17,0.00,,---,0.00,VWS V14.01,2013-10-21 20:54:00,
2013-10-21 15:56:00,67.3,21.0,24.89,East,90,8.3,8.3,17,0.00,,---,0.00,VWS V14.01,2013-10-21 20:56:00,
2013-10-21 15:57:00,66.7,20.6,24.89,East,90,8.3,8.3,17,0.00,,---,0.00,VWS V14.01,2013-10-21 20:57:00,
2013-10-21 15:59:00,66.6,20.4,24.89,East,90,8.3,8.3,17,0.00,,---,0.00,VWS V14.01,2013-10-21 20:59:00,
2013-10-21 16:01:00,66.6,20.4,24.89,East,90,8.3,8.3,17,0.00,,---,0.00,VWS V14.01,2013-10-21 21:01:00,
2013-10-21 16:02:00,66.6,20.4,24.89,East,90,8.3,8.3,17,0.00,,---,0.00,VWS V14.01,2013-10-21 21:02:00,
2013-10-21 16:04:00,66.6,20.4,24.89,East,90,8.3,8.3,17,0.00,,---,0.00,VWS V14.01,2013-10-21 21:04:00,
2013-10-21 16:05:00,65.7,21.0,24.89,East,90,8.3,8.3,18,0.00,,---,0.00,VWS V14.01,2013-10-21 21:05:00,
2013-10-21 16:06:00,65.7,21.0,24.89,East,90,8.3,8.3,18,0.00,,---,0.00,VWS V14.01,2013-10-21 21:06:00,
2013-10-21 16:07:00,65.7,21.0,24.89,East,90,8.3,8.3,18,0.00,,---,0.00,VWS V14.01,2013-10-21 21:07:00,
2013-10-21 16:09:00,65.1,20.6,24.89,East,90,8.3,8.3,18,0.00,,---,0.00,VWS V14.01,2013-10-21 21:09:00,
2013-10-21 16:10:00,65.1,20.6,24.89,East,82,11.9,11.9,18,0.00,,---,0.00,VWS V14.01,2013-10-21 21:10:00,
2013-10-21 16:13:00,65.1,20.6,24.89,East,82,11.9,11.9,18,0.00,,---,0.00,VWS V14.01,2013-10-21 21:13:00,
2013-10-21 16:14:00,65.1,20.6,24.89,East,82,11.9,11.9,18,0.00,,---,0.00,VWS V14.01,2013-10-21 21:14:00,
2013-10-21 16:15:00,65.1,20.6,24.89,East,82,11.9,11.9,18,0.00,,---,0.00,VWS V14.01,2013-10-21 21:15:00,
2013-10-21 16:16:00,65.1,20.6,24.89,East,82,11.9,11.9,18,0.00,,---,0.00,VWS V14.01,2013-10-21 21:16:00,
2013-10-21 16:17:00,65.1,20.6,24.89,East,82,11.9,11.9,18,0.00,,---,0.00,VWS V14.01,2013-10-21 21:17:00,
2013-10-21 16:18:00,65.1,20.6,24.89,East,82,11.9,11.9,18,0.00,,---,0.00,VWS V14.01,2013-10-21 21:18:00,
2013-10-21 16:20:00,65.1,20.6,24.89,East,82,11.9,11.9,18,0.00,,---,0.00,VWS V14.01,2013-10-21 21:20:00,
2013-10-21 16:22:00,65.1,20.6,24.89,East,82,11.9,11.9,18,0.00,,---,0.00,VWS V14.01,2013-10-21 21:22:00,
2013-10-21 16:23:00,65.1,20.6,24.89,East,82,11.9,11.9,18,0.00,,---,0.00,VWS V14.01,2013-10-21 21:23:00,
2013-10-21 16:25:00,65.1,20.6,24.89,East,82,11.9,11.9,18,0.00,,---,0.00,VWS V14.01,2013-10-21 21:25:00,
2013-10-21 16:27:00,65.1,20.6,24.89,East,82,11.9,11.9,18,0.00,,---,0.00,VWS V14.01,2013-10-21 21:27:00,
2013-10-21 16:28:00,65.1,20.6,24.89,East,82,11.9,11.9,18,0.00,,---,0.00,VWS V14.01,2013-10-21 21:28:00,
2013-10-21 16:31:00,65.1,20.6,24.89,East,82,11.9,11.9,18,0.00,,---,0.00,VWS V14.01,2013-10-21 21:31:00,
2013-10-21 16:32:00,65.1,20.6,24.89,East,82,11.9,11.9,18,0.00,,---,0.00,VWS V14.01,2013-10-21 21:32:00,
2013-10-21 16:33:00,65.1,20.6,24.89,East,82,11.9,11.9,18,0.00,,---,0.00,VWS V14.01,2013-10-21 21:33:00,
2013-10-21 16:34:00,65.1,20.6,24.89,East,82,11.9,11.9,18,0.00,,---,0.00,VWS V14.01,2013-10-21 21:34:00,
2013-10-21 16:37:00,65.1,20.6,24.89,East,82,11.9,11.9,18,0.00,,---,0.00,VWS V14.01,2013-10-21 21:37:00,
2013-10-21 16:38:00,65.1,20.6,24.89,East,93,10.1,11.9,18,0.00,,---,0.00,VWS V14.01,2013-10-21 21:38:00,
2013-10-21 16:39:00,64.8,20.3,24.89,East,93,10.1,10.1,18,0.00,,---,0.00,VWS V14.01,2013-10-21 21:39:00,
2013-10-21 16:42:00,64.8,20.3,24.89,East,93,10.1,10.1,18,0.00,,---,0.00,VWS V14.01,2013-10-21 21:42:00,
2013-10-21 16:44:00,64.8,20.3,24.89,East,93,10.1,10.1,18,0.00,,---,0.00,VWS V14.01,2013-10-21 21:44:00,
2013-10-21 16:45:00,64.8,20.3,24.89,East,93,10.1,10.1,18,0.00,,---,0.00,VWS V14.01,2013-10-21 21:45:00,
2013-10-21 16:47:00,64.8,20.3,24.89,East,93,10.1,10.1,18,0.00,,---,0.00,VWS V14.01,2013-10-21 21:47:00,
2013-10-21 16:48:00,64.4,20.0,24.89,East,93,10.1,10.1,18,0.00,,---,0.00,VWS V14.01,2013-10-21 21:48:00,
2013-10-21 16:49:00,64.4,20.0,24.89,East,93,10.1,10.1,18,0.00,,---,0.00,VWS V14.01,2013-10-21 21:49:00,
2013-10-21 16:50:00,64.4,20.0,24.89,East,93,10.1,10.1,18,0.00,,---,0.00,VWS V14.01,2013-10-21 21:50:00,
2013-10-21 16:55:00,64.0,19.7,24.89,East,93,10.1,10.1,18,0.00,,---,0.00,VWS V14.01,2013-10-21 21:55:00,
2013-10-21 16:56:00,64.0,19.7,24.89,East,93,10.1,10.1,18,0.00,,---,0.00,VWS V14.01,2013-10-21 21:56:00,
2013-10-21 16:58:00,63.9,19.6,24.89,East,93,10.1,10.1,18,0.00,,---,0.00,VWS V14.01,2013-10-21 21:58:00,
2013-10-21 17:00:00,63.9,19.6,24.89,East,93,10.1,10.1,18,0.00,,---,0.00,VWS V14.01,2013-10-21 22:00:00,
2013-10-21 17:01:00,63.9,19.6,24.89,East,93,10.1,10.1,18,0.00,,---,0.00,VWS V14.01,2013-10-21 22:01:00,
2013-10-21 17:02:00,63.9,19.6,24.89,East,93,10.1,10.1,18,0.00,,---,0.00,VWS V14.01,2013-10-21 22:02:00,
2013-10-21 17:03:00,63.9,19.6,24.89,East,93,10.1,10.1,18,0.00,,---,0.00,VWS V14.01,2013-10-21 22:03:00,
2013-10-21 17:05:00,63.7,19.4,24.89,East,93,10.1,10.1,18,0.00,,---,0.00,VWS V14.01,2013-10-21 22:05:00,
2013-10-21 17:07:00,63.7,19.4,24.89,East,93,10.1,10.1,18,0.00,,---,0.00,VWS V14.01,2013-10-21 22:07:00,
2013-10-21 17:08:00,63.7,19.4,24.89,East,93,10.1,10.1,18,0.00,,---,0.00,VWS V14.01,2013-10-21 22:08:00,
2013-10-21 17:10:00,63.7,19.4,24.89,East,93,10.1,10.1,18,0.00,,---,0.00,VWS V14.01,2013-10-21 22:10:00,
2013-10-21 17:12:00,63.7,19.4,24.89,East,93,10.1,10.1,18,0.00,,---,0.00,VWS V14.01,2013-10-21 22:12:00,
2013-10-21 17:13:00,63.7,19.4,24.89,East,93,10.1,10.1,18,0.00,,---,0.00,VWS V14.01,2013-10-21 22:13:00,
2013-10-21 17:14:00,63.3,19.1,24.89,East,93,10.1,10.1,18,0.00,,---,0.00,VWS V14.01,2013-10-21 22:14:00,
2013-10-21 17:16:00,63.3,19.1,24.89,East,93,10.1,10.1,18,0.00,,---,0.00,VWS V14.01,2013-10-21 22:16:00,
2013-10-21 17:17:00,63.3,19.1,24.89,East,93,10.1,10.1,18,0.00,,---,0.00,VWS V14.01,2013-10-21 22:17:00,
2013-10-21 17:18:00,63.1,19.0,24.89,East,93,10.1,10.1,18,0.00,,---,0.00,VWS V14.01,2013-10-21 22:18:00,
2013-10-21 17:20:00,63.0,18.8,24.89,East,93,10.1,10.1,18,0.00,,---,0.00,VWS V14.01,2013-10-21 22:20:00,
2013-10-21 17:21:00,63.0,18.8,24.89,East,93,10.1,10.1,18,0.00,,---,0.00,VWS V14.01,2013-10-21 22:21:00,
2013-10-21 17:22:00,63.0,18.8,24.89,East,93,10.1,10.1,18,0.00,,---,0.00,VWS V14.01,2013-10-21 22:22:00,
2013-10-21 17:23:00,62.6,18.5,24.89,East,93,10.1,10.1,18,0.00,,---,0.00,VWS V14.01,2013-10-21 22:23:00,
2013-10-21 17:25:00,62.6,18.5,24.89,East,93,10.1,10.1,18,0.00,,---,0.00,VWS V14.01,2013-10-21 22:25:00,
2013-10-21 17:26:00,62.2,19.5,24.89,East,93,10.1,10.1,19,0.00,,---,0.00,VWS V14.01,2013-10-21 22:26:00,
2013-10-21 17:27:00,62.2,19.5,24.89,East,93,10.1,10.1,19,0.00,,---,0.00,VWS V14.01,2013-10-21 22:27:00,
2013-10-21 17:28:00,62.2,19.5,24.89,East,93,10.1,10.1,19,0.00,,---,0.00,VWS V14.01,2013-10-21 22:28:00,
2013-10-21 17:31:00,62.2,19.5,24.89,East,93,10.1,10.1,19,0.00,,---,0.00,VWS V14.01,2013-10-21 22:31:00,
2013-10-21 17:32:00,62.2,19.5,24.89,East,93,10.1,10.1,19,0.00,,---,0.00,VWS V14.01,2013-10-21 22:32:00,
2013-10-21 17:33:00,62.2,19.5,24.89,East,93,10.1,10.1,19,0.00,,---,0.00,VWS V14.01,2013-10-21 22:33:00,
2013-10-21 17:36:00,62.2,19.5,24.89,East,93,10.1,10.1,19,0.00,,---,0.00,VWS V14.01,2013-10-21 22:36:00,
2013-10-21 17:37:00,62.2,19.5,24.89,East,93,10.1,10.1,19,0.00,,---,0.00,VWS V14.01,2013-10-21 22:37:00,
2013-10-21 17:38:00,62.2,19.5,24.89,East,93,10.1,10.1,19,0.00,,---,0.00,VWS V14.01,2013-10-21 22:38:00,
2013-10-21 17:41:00,61.9,19.2,24.89,East,93,10.1,10.1,19,0.00,,---,0.00,VWS V14.01,2013-10-21 22:41:00,
2013-10-21 17:42:00,61.9,19.2,24.89,East,93,10.1,10.1,19,0.00,,---,0.00,VWS V14.01,2013-10-21 22:42:00,
2013-10-21 17:43:00,61.9,19.2,24.89,East,93,10.1,10.1,19,0.00,,---,0.00,VWS V14.01,2013-10-21 22:43:00,
2013-10-21 17:44:00,61.9,19.2,24.89,East,93,10.1,10.1,19,0.00,,---,0.00,VWS V14.01,2013-10-21 22:44:00,
2013-10-21 17:47:00,61.9,19.2,24.89,East,93,10.1,10.1,19,0.00,,---,0.00,VWS V14.01,2013-10-21 22:47:00,
2013-10-21 17:48:00,61.7,19.0,24.89,East,93,10.1,10.1,19,0.00,,---,0.00,VWS V14.01,2013-10-21 22:48:00,
2013-10-21 17:49:00,61.7,19.0,24.89,East,93,10.1,10.1,19,0.00,,---,0.00,VWS V14.01,2013-10-21 22:49:00,
2013-10-21 17:52:00,61.7,19.0,24.89,East,93,10.1,10.1,19,0.00,,---,0.00,VWS V14.01,2013-10-21 22:52:00,
2013-10-21 17:53:00,61.7,19.0,24.89,East,93,10.1,10.1,19,0.00,,---,0.00,VWS V14.01,2013-10-21 22:53:00,
2013-10-21 17:54:00,61.7,19.0,24.89,East,93,10.1,10.1,19,0.00,,---,0.00,VWS V14.01,2013-10-21 22:54:00,
2013-10-21 17:57:00,61.2,18.6,24.89,East,93,10.1,10.1,19,0.00,,---,0.00,VWS V14.01,2013-10-21 22:57:00,
2013-10-21 17:58:00,61.2,18.6,24.89,East,93,10.1,10.1,19,0.00,,---,0.00,VWS V14.01,2013-10-21 22:58:00,
2013-10-21 17:59:00,61.2,18.6,24.89,East,93,10.1,10.1,19,0.00,,---,0.00,VWS V14.01,2013-10-21 22:59:00,
2013-10-21 18:00:00,61.2,18.6,24.89,East,93,10.1,10.1,19,0.00,,---,0.00,VWS V14.01,2013-10-21 23:00:00,
2013-10-21 18:01:00,61.0,18.5,24.89,East,93,10.1,10.1,19,0.00,,---,0.00,VWS V14.01,2013-10-21 23:01:00,
2013-10-21 18:02:00,61.0,18.5,24.89,East,93,10.1,10.1,19,0.00,,---,0.00,VWS V14.01,2013-10-21 23:02:00,
2013-10-21 18:03:00,61.0,18.5,24.89,East,93,10.1,10.1,19,0.00,,---,0.00,VWS V14.01,2013-10-21 23:03:00,
2013-10-21 18:04:00,61.0,18.5,24.89,East,93,10.1,10.1,19,0.00,,---,0.00,VWS V14.01,2013-10-21 23:04:00,
2013-10-21 18:05:00,60.6,18.2,24.89,East,93,10.1,10.1,19,0.00,,---,0.00,VWS V14.01,2013-10-21 23:05:00,
2013-10-21 18:07:00,60.6,18.2,24.89,East,93,10.1,10.1,19,0.00,,---,0.00,VWS V14.01,2013-10-21 23:07:00,
2013-10-21 18:08:00,60.6,18.2,24.89,East,93,10.1,10.1,19,0.00,,---,0.00,VWS V14.01,2013-10-21 23:08:00,
2013-10-21 18:09:00,60.6,18.2,24.89,East,93,10.1,10.1,19,0.00,,---,0.00,VWS V14.01,2013-10-21 23:09:00,
2013-10-21 18:10:00,60.6,18.2,24.89,East,93,10.1,10.1,19,0.00,,---,0.00,VWS V14.01,2013-10-21 23:10:00,
2013-10-21 18:12:00,60.6,18.2,24.89,East,93,10.1,10.1,19,0.00,,---,0.00,VWS V14.01,2013-10-21 23:12:00,
2013-10-21 18:14:00,60.1,17.7,24.89,East,93,10.1,10.1,19,0.00,,---,0.00,VWS V14.01,2013-10-21 23:14:00,
2013-10-21 18:15:00,60.1,17.7,24.89,East,93,10.1,10.1,19,0.00,,---,0.00,VWS V14.01,2013-10-21 23:15:00,
2013-10-21 18:17:00,60.1,17.7,24.89,East,93,10.1,10.1,19,0.00,,---,0.00,VWS V14.01,2013-10-21 23:17:00,
2013-10-21 18:18:00,60.1,17.7,24.89,East,93,10.1,10.1,19,0.00,,---,0.00,VWS V14.01,2013-10-21 23:18:00,
2013-10-21 18:19:00,60.1,17.7,24.89,East,93,10.1,10.1,19,0.00,,---,0.00,VWS V14.01,2013-10-21 23:19:00,
2013-10-21 18:20:00,60.1,17.7,24.89,East,93,10.1,10.1,19,0.00,,---,0.00,VWS V14.01,2013-10-21 23:20:00,
2013-10-21 18:21:00,60.1,17.7,24.89,East,93,10.1,10.1,19,0.00,,---,0.00,VWS V14.01,2013-10-21 23:21:00,
2013-10-21 18:22:00,60.1,17.7,24.89,East,93,10.1,10.1,19,0.00,,---,0.00,VWS V14.01,2013-10-21 23:22:00,
2013-10-21 18:23:00,60.1,17.7,24.89,East,93,10.1,10.1,19,0.00,,---,0.00,VWS V14.01,2013-10-21 23:23:00,
2013-10-21 18:24:00,59.4,17.1,24.89,East,93,10.1,10.1,19,0.00,,---,0.00,VWS V14.01,2013-10-21 23:24:00,
2013-10-21 18:25:00,59.4,17.1,24.89,East,93,10.1,10.1,19,0.00,,---,0.00,VWS V14.01,2013-10-21 23:25:00,
2013-10-21 18:26:00,59.4,17.1,24.89,East,93,10.1,10.1,19,0.00,,---,0.00,VWS V14.01,2013-10-21 23:26:00,
2013-10-21 18:27:00,59.4,17.1,24.89,East,93,10.1,10.1,19,0.00,,---,0.00,VWS V14.01,2013-10-21 23:27:00,
2013-10-21 18:29:00,58.8,16.7,24.89,East,93,10.1,10.1,19,0.00,,---,0.00,VWS V14.01,2013-10-21 23:29:00,
2013-10-21 18:30:00,58.8,16.7,24.89,East,93,10.1,10.1,19,0.00,,---,0.00,VWS V14.01,2013-10-21 23:30:00,
2013-10-21 18:31:00,58.8,16.7,24.89,East,93,10.1,10.1,19,0.00,,---,0.00,VWS V14.01,2013-10-21 23:31:00,
2013-10-21 18:32:00,58.8,16.7,24.89,East,93,10.1,10.1,19,0.00,,---,0.00,VWS V14.01,2013-10-21 23:32:00,
2013-10-21 18:34:00,58.8,16.7,24.89,East,93,10.1,10.1,19,0.00,,---,0.00,VWS V14.01,2013-10-21 23:34:00,
2013-10-21 18:35:00,58.8,16.7,24.89,East,93,10.1,10.1,19,0.00,,---,0.00,VWS V14.01,2013-10-21 23:35:00,
2013-10-21 18:36:00,58.8,16.7,24.89,East,93,10.1,10.1,19,0.00,,---,0.00,VWS V14.01,2013-10-21 23:36:00,
2013-10-21 18:37:00,58.8,16.7,24.89,East,93,10.1,10.1,19,0.00,,---,0.00,VWS V14.01,2013-10-21 23:37:00,
2013-10-21 18:39:00,58.8,16.7,24.89,East,93,10.1,10.1,19,0.00,,---,0.00,VWS V14.01,2013-10-21 23:39:00,
2013-10-21 18:40:00,58.8,16.7,24.89,East,93,10.1,10.1,19,0.00,,---,0.00,VWS V14.01,2013-10-21 23:40:00,
2013-10-21 18:41:00,58.8,16.7,24.89,East,93,10.1,10.1,19,0.00,,---,0.00,VWS V14.01,2013-10-21 23:41:00,
2013-10-21 18:42:00,58.8,16.7,24.89,East,93,10.1,10.1,19,0.00,,---,0.00,VWS V14.01,2013-10-21 23:42:00,
2013-10-21 18:43:00,58.8,16.7,24.89,East,93,10.1,10.1,19,0.00,,---,0.00,VWS V14.01,2013-10-21 23:43:00,
2013-10-21 18:44:00,58.8,16.7,24.89,East,93,10.1,10.1,19,0.00,,---,0.00,VWS V14.01,2013-10-21 23:44:00,
2013-10-21 18:45:00,57.6,15.6,24.89,East,93,10.1,10.1,19,0.00,,---,0.00,VWS V14.01,2013-10-21 23:45:00,
2013-10-21 18:46:00,57.6,15.6,24.89,East,93,10.1,10.1,19,0.00,,---,0.00,VWS V14.01,2013-10-21 23:46:00,
2013-10-21 18:47:00,57.6,15.6,24.89,East,93,10.1,10.1,19,0.00,,---,0.00,VWS V14.01,2013-10-21 23:47:00,
2013-10-21 18:48:00,57.6,15.6,24.89,East,93,10.1,10.1,19,0.00,,---,0.00,VWS V14.01,2013-10-21 23:48:00,
2013-10-21 18:49:00,57.6,15.6,24.89,East,93,10.1,10.1,19,0.00,,---,0.00,VWS V14.01,2013-10-21 23:49:00,
2013-10-21 18:50:00,57.6,15.6,24.89,East,93,10.1,10.1,19,0.00,,---,0.00,VWS V14.01,2013-10-21 23:50:00,
2013-10-21 18:51:00,57.6,15.6,24.89,East,93,10.1,10.1,19,0.00,,---,0.00,VWS V14.01,2013-10-21 23:51:00,
2013-10-21 18:52:00,57.0,16.4,24.89,East,93,10.1,10.1,20,0.00,,---,0.00,VWS V14.01,2013-10-21 23:52:00,
2013-10-21 18:53:00,56.8,16.2,24.89,East,93,10.1,10.1,20,0.00,,---,0.00,VWS V14.01,2013-10-21 23:53:00,
2013-10-21 18:54:00,56.8,16.2,24.89,East,93,10.1,10.1,20,0.00,,---,0.00,VWS V14.01,2013-10-21 23:54:00,
2013-10-21 18:56:00,56.8,16.2,24.89,East,93,10.1,10.1,20,0.00,,---,0.00,VWS V14.01,2013-10-21 23:56:00,
2013-10-21 18:57:00,56.8,16.2,24.89,East,93,10.1,10.1,20,0.00,,---,0.00,VWS V14.01,2013-10-21 23:57:00,
2013-10-21 18:58:00,56.8,16.2,24.89,East,93,10.1,10.1,20,0.00,,---,0.00,VWS V14.01,2013-10-21 23:58:00,
2013-10-21 19:00:00,56.8,16.2,24.89,East,93,10.1,10.1,20,0.00,,---,0.00,VWS V14.01,2013-10-22 00:00:00,
2013-10-21 19:01:00,56.8,16.2,24.89,East,93,10.1,10.1,20,0.00,,---,0.00,VWS V14.01,2013-10-22 00:01:00,
2013-10-21 19:02:00,56.8,16.2,24.89,East,93,10.1,10.1,20,0.00,,---,0.00,VWS V14.01,2013-10-22 00:02:00,
2013-10-21 19:04:00,56.8,16.2,24.89,East,93,10.1,10.1,20,0.00,,---,0.00,VWS V14.01,2013-10-22 00:04:00,
2013-10-21 19:05:00,56.8,16.2,24.89,East,93,10.1,10.1,20,0.00,,---,0.00,VWS V14.01,2013-10-22 00:05:00,
2013-10-21 19:06:00,56.8,16.2,24.89,East,93,10.1,10.1,20,0.00,,---,0.00,VWS V14.01,2013-10-22 00:06:00,
2013-10-21 19:09:00,56.8,16.2,24.89,East,93,10.1,10.1,20,0.00,,---,0.00,VWS V14.01,2013-10-22 00:09:00,
2013-10-21 19:10:00,56.8,16.2,24.89,East,93,10.1,10.1,20,0.00,,---,0.00,VWS V14.01,2013-10-22 00:10:00,
2013-10-21 19:11:00,56.8,16.2,24.89,East,93,10.1,10.1,20,0.00,,---,0.00,VWS V14.01,2013-10-22 00:11:00,
2013-10-21 19:14:00,56.8,16.2,24.89,East,93,10.1,10.1,20,0.00,,---,0.00,VWS V14.01,2013-10-22 00:14:00,
2013-10-21 19:15:00,56.8,16.2,24.89,East,93,10.1,10.1,20,0.00,,---,0.00,VWS V14.01,2013-10-22 00:15:00,
2013-10-21 19:16:00,54.3,14.1,24.89,East,93,10.1,10.1,20,0.00,,---,0.00,VWS V14.01,2013-10-22 00:16:00,
2013-10-21 19:19:00,54.3,14.1,24.89,East,93,10.1,10.1,20,0.00,,---,0.00,VWS V14.01,2013-10-22 00:19:00,
2013-10-21 19:20:00,53.8,13.7,24.89,East,93,10.1,10.1,20,0.00,,---,0.00,VWS V14.01,2013-10-22 00:20:00,
2013-10-21 19:21:00,53.8,13.7,24.89,East,93,10.1,10.1,20,0.00,,---,0.00,VWS V14.01,2013-10-22 00:21:00,
2013-10-21 19:22:00,53.8,13.7,24.89,East,93,10.1,10.1,20,0.00,,---,0.00,VWS V14.01,2013-10-22 00:22:00,
2013-10-21 19:24:00,53.6,13.5,24.89,East,93,10.1,10.1,20,0.00,,---,0.00,VWS V14.01,2013-10-22 00:24:00,
2013-10-21 19:25:00,53.6,13.5,24.89,East,93,10.1,10.1,20,0.00,,---,0.00,VWS V14.01,2013-10-22 00:25:00,
2013-10-21 19:26:00,53.6,13.5,24.89,East,93,10.1,10.1,20,0.00,,---,0.00,VWS V14.01,2013-10-22 00:26:00,
2013-10-21 19:27:00,53.6,13.5,24.89,East,93,10.1,10.1,20,0.00,,---,0.00,VWS V14.01,2013-10-22 00:27:00,
2013-10-21 19:30:00,53.6,13.5,24.89,East,93,10.1,10.1,20,0.00,,---,0.00,VWS V14.01,2013-10-22 00:30:00,
2013-10-21 19:31:00,53.6,13.5,24.89,East,93,10.1,10.1,20,0.00,,---,0.00,VWS V14.01,2013-10-22 00:31:00,
2013-10-21 19:32:00,53.6,13.5,24.89,East,93,10.1,10.1,20,0.00,,---,0.00,VWS V14.01,2013-10-22 00:32:00,
2013-10-21 19:35:00,53.6,13.5,24.89,East,93,10.1,10.1,20,0.00,,---,0.00,VWS V14.01,2013-10-22 00:35:00,
2013-10-21 19:36:00,53.6,13.5,24.89,East,93,10.1,10.1,20,0.00,,---,0.00,VWS V14.01,2013-10-22 00:36:00,
2013-10-21 19:37:00,53.6,13.5,24.89,East,93,10.1,10.1,20,0.00,,---,0.00,VWS V14.01,2013-10-22 00:37:00,
2013-10-21 19:38:00,52.9,16.1,24.89,East,93,10.1,10.1,23,0.00,,---,0.00,VWS V14.01,2013-10-22 00:38:00,
2013-10-21 19:41:00,52.9,16.1,24.89,East,93,10.1,10.1,23,0.00,,---,0.00,VWS V14.01,2013-10-22 00:41:00,
2013-10-21 19:42:00,52.9,16.1,24.89,East,93,10.1,10.1,23,0.00,,---,0.00,VWS V14.01,2013-10-22 00:42:00,
2013-10-21 19:44:00,52.9,16.1,24.89,East,93,10.1,10.1,23,0.00,,---,0.00,VWS V14.01,2013-10-22 00:44:00,
2013-10-21 19:46:00,52.9,16.1,24.89,East,93,10.1,10.1,23,0.00,,---,0.00,VWS V14.01,2013-10-22 00:46:00,
2013-10-21 19:47:00,52.9,16.1,24.89,East,93,10.1,10.1,23,0.00,,---,0.00,VWS V14.01,2013-10-22 00:47:00,
2013-10-21 19:48:00,52.9,16.1,24.89,ESE,118,4.9,10.1,23,0.00,,---,0.00,VWS V14.01,2013-10-22 00:48:00,
2013-10-21 19:49:00,52.3,15.7,24.89,ESE,117,3.6,3.6,23,0.00,,---,0.00,VWS V14.01,2013-10-22 00:49:00,
2013-10-21 19:51:00,52.3,15.7,24.89,ESE,117,3.6,3.6,23,0.00,,---,0.00,VWS V14.01,2013-10-22 00:51:00,
2013-10-21 19:52:00,52.3,15.7,24.89,SE,133,5.4,5.4,23,0.00,,---,0.00,VWS V14.01,2013-10-22 00:52:00,
2013-10-21 19:53:00,52.3,15.7,24.89,SE,133,5.4,5.4,23,0.00,,---,0.00,VWS V14.01,2013-10-22 00:53:00,
2013-10-21 19:54:00,52.3,15.7,24.89,SE,133,5.4,5.4,23,0.00,,---,0.00,VWS V14.01,2013-10-22 00:54:00,
2013-10-21 19:56:00,52.3,15.7,24.89,SE,133,5.4,5.4,23,0.00,,---,0.00,VWS V14.01,2013-10-22 00:56:00,
2013-10-21 19:57:00,52.3,15.7,24.89,SE,133,5.4,5.4,23,0.00,,---,0.00,VWS V14.01,2013-10-22 00:57:00,
2013-10-21 19:58:00,52.3,15.7,24.89,SE,133,5.4,5.4,23,0.00,,---,0.00,VWS V14.01,2013-10-22 00:58:00,
2013-10-21 19:59:00,51.8,18.0,24.89,SE,133,5.4,5.4,26,0.00,,---,0.00,VWS V14.01,2013-10-22 00:59:00,
2013-10-21 20:01:00,51.8,18.0,24.89,SE,133,5.4,5.4,26,0.00,,---,0.00,VWS V14.01,2013-10-22 01:01:00,
2013-10-21 20:02:00,51.6,17.9,24.89,SE,133,5.4,5.4,26,0.00,,---,0.00,VWS V14.01,2013-10-22 01:02:00,
2013-10-21 20:03:00,51.6,17.9,24.89,SE,133,5.4,5.4,26,0.00,,---,0.00,VWS V14.01,2013-10-22 01:03:00,
2013-10-21 20:04:00,51.6,17.9,24.89,SE,133,5.4,5.4,26,0.00,,---,0.00,VWS V14.01,2013-10-22 01:04:00,
2013-10-21 20:06:00,51.6,17.9,24.89,SE,133,5.4,5.4,26,0.00,,---,0.00,VWS V14.01,2013-10-22 01:06:00,
2013-10-21 20:07:00,51.6,17.9,24.89,SE,133,5.4,5.4,26,0.00,,---,0.00,VWS V14.01,2013-10-22 01:07:00,
2013-10-21 20:08:00,51.6,17.9,24.89,SE,133,5.4,5.4,26,0.00,,---,0.00,VWS V14.01,2013-10-22 01:08:00,
2013-10-21 20:10:00,51.3,17.6,24.89,SE,133,5.4,5.4,26,0.00,,---,0.00,VWS V14.01,2013-10-22 01:10:00,
2013-10-21 20:12:00,51.3,17.6,24.89,SE,133,5.4,5.4,26,0.00,,---,0.00,VWS V14.01,2013-10-22 01:12:00,
2013-10-21 20:13:00,51.3,17.6,24.89,SE,133,5.4,5.4,26,0.00,,---,0.00,VWS V14.01,2013-10-22 01:13:00,
2013-10-21 20:15:00,51.3,17.6,24.89,SE,133,5.4,5.4,26,0.00,,---,0.00,VWS V14.01,2013-10-22 01:15:00,
2013-10-21 20:17:00,51.3,17.6,24.89,SE,133,5.4,5.4,26,0.00,,---,0.00,VWS V14.01,2013-10-22 01:17:00,
2013-10-21 20:18:00,51.3,17.6,24.89,SE,133,5.4,5.4,26,0.00,,---,0.00,VWS V14.01,2013-10-22 01:18:00,
2013-10-21 20:19:00,51.3,17.6,24.89,SE,133,5.4,5.4,26,0.00,,---,0.00,VWS V14.01,2013-10-22 01:19:00,
2013-10-21 20:20:00,50.9,17.2,24.89,SE,133,5.4,5.4,26,0.00,,---,0.00,VWS V14.01,2013-10-22 01:20:00,
2013-10-21 20:22:00,50.9,17.2,24.89,SE,133,5.4,5.4,26,0.00,,---,0.00,VWS V14.01,2013-10-22 01:22:00,
2013-10-21 20:23:00,50.9,17.2,24.89,SE,133,5.4,5.4,26,0.00,,---,0.00,VWS V14.01,2013-10-22 01:23:00,
2013-10-21 20:24:00,50.9,17.2,24.89,SE,133,5.4,5.4,26,0.00,,---,0.00,VWS V14.01,2013-10-22 01:24:00,
2013-10-21 20:25:00,50.9,17.2,24.89,SE,133,5.4,5.4,26,0.00,,---,0.00,VWS V14.01,2013-10-22 01:25:00,
2013-10-21 20:27:00,50.9,17.2,24.89,SE,133,5.4,5.4,26,0.00,,---,0.00,VWS V14.01,2013-10-22 01:27:00,
2013-10-21 20:28:00,50.9,17.2,24.89,SE,133,5.4,5.4,26,0.00,,---,0.00,VWS V14.01,2013-10-22 01:28:00,
2013-10-21 20:29:00,50.9,17.2,24.89,SE,133,5.4,5.4,26,0.00,,---,0.00,VWS V14.01,2013-10-22 01:29:00,
2013-10-21 20:30:00,50.9,17.2,24.89,SE,133,5.4,5.4,26,0.00,,---,0.00,VWS V14.01,2013-10-22 01:30:00,
2013-10-21 20:32:00,50.9,17.2,24.89,SE,133,5.4,5.4,26,0.00,,---,0.00,VWS V14.01,2013-10-22 01:32:00,
2013-10-21 20:33:00,50.9,17.2,24.89,SE,133,5.4,5.4,26,0.00,,---,0.00,VWS V14.01,2013-10-22 01:33:00,
2013-10-21 20:34:00,50.9,17.2,24.89,SE,133,5.4,5.4,26,0.00,,---,0.00,VWS V14.01,2013-10-22 01:34:00,
2013-10-21 20:36:00,50.2,17.5,24.89,SE,133,5.4,5.4,27,0.00,,---,0.00,VWS V14.01,2013-10-22 01:36:00,
2013-10-21 20:38:00,50.2,17.5,24.89,SE,133,5.4,5.4,27,0.00,,---,0.00,VWS V14.01,2013-10-22 01:38:00,
2013-10-21 20:39:00,50.2,17.5,24.89,SE,133,5.4,5.4,27,0.00,,---,0.00,VWS V14.01,2013-10-22 01:39:00,
2013-10-21 20:41:00,50.2,17.5,24.89,SE,133,5.4,5.4,27,0.00,,---,0.00,VWS V14.01,2013-10-22 01:41:00,
2013-10-21 20:43:00,50.2,17.5,24.89,SE,133,5.4,5.4,27,0.00,,---,0.00,VWS V14.01,2013-10-22 01:43:00,
2013-10-21 20:44:00,50.2,17.5,24.89,SE,133,5.4,5.4,27,0.00,,---,0.00,VWS V14.01,2013-10-22 01:44:00,
2013-10-21 20:46:00,50.2,17.5,24.89,SE,133,5.4,5.4,27,0.00,,---,0.00,VWS V14.01,2013-10-22 01:46:00,
2013-10-21 20:48:00,50.2,17.5,24.89,SE,133,5.4,5.4,27,0.00,,---,0.00,VWS V14.01,2013-10-22 01:48:00,
2013-10-21 20:49:00,49.5,16.9,24.95,SE,133,5.4,5.4,27,0.00,,---,0.00,VWS V14.01,2013-10-22 01:49:00,
2013-10-21 20:51:00,49.5,16.9,24.95,SE,133,5.4,5.4,27,0.00,,---,0.00,VWS V14.01,2013-10-22 01:51:00,
2013-10-21 20:53:00,49.5,16.9,24.95,SE,133,5.4,5.4,27,0.00,,---,0.00,VWS V14.01,2013-10-22 01:53:00,
2013-10-21 20:54:00,49.5,16.9,24.95,SE,133,5.4,5.4,27,0.00,,---,0.00,VWS V14.01,2013-10-22 01:54:00,
2013-10-21 20:55:00,49.1,16.6,24.95,SE,133,5.4,5.4,27,0.00,,---,0.00,VWS V14.01,2013-10-22 01:55:00,
2013-10-21 20:57:00,49.1,16.6,24.95,SE,133,5.4,5.4,27,0.00,,---,0.00,VWS V14.01,2013-10-22 01:57:00,
2013-10-21 20:59:00,49.1,16.6,24.95,SE,133,5.4,5.4,27,0.00,,---,0.00,VWS V14.01,2013-10-22 01:59:00,
2013-10-21 21:00:00,49.1,16.6,24.95,SE,133,5.4,5.4,27,0.00,,---,0.00,VWS V14.01,2013-10-22 02:00:00,
2013-10-21 21:02:00,48.2,15.8,24.95,SE,133,5.4,5.4,27,0.00,,---,0.00,VWS V14.01,2013-10-22 02:02:00,
2013-10-21 21:04:00,48.2,15.8,24.95,SE,133,5.4,5.4,27,0.00,,---,0.00,VWS V14.01,2013-10-22 02:04:00,
2013-10-21 21:05:00,48.2,15.8,24.95,SE,133,5.4,5.4,27,0.00,,---,0.00,VWS V14.01,2013-10-22 02:05:00,
2013-10-21 21:07:00,48.2,15.8,24.95,SE,133,5.4,5.4,27,0.00,,---,0.00,VWS V14.01,2013-10-22 02:07:00,
2013-10-21 21:09:00,48.2,15.8,24.95,SE,133,5.4,5.4,27,0.00,,---,0.00,VWS V14.01,2013-10-22 02:09:00,
2013-10-21 21:10:00,47.3,15.9,24.95,SE,133,5.4,5.4,28,0.00,,---,0.00,VWS V14.01,2013-10-22 02:10:00,
2013-10-21 21:11:00,47.3,15.9,24.95,SE,133,5.4,5.4,28,0.00,,---,0.00,VWS V14.01,2013-10-22 02:11:00,
2013-10-21 21:13:00,47.1,15.7,24.95,SE,133,5.4,5.4,28,0.00,,---,0.00,VWS V14.01,2013-10-22 02:13:00,
2013-10-21 21:15:00,47.1,15.7,24.95,SE,133,5.4,5.4,28,0.00,,---,0.00,VWS V14.01,2013-10-22 02:15:00,
2013-10-21 21:16:00,47.1,15.7,24.95,ESE,114,0.0,5.4,28,0.00,,---,0.00,VWS V14.01,2013-10-22 02:16:00,
2013-10-21 21:18:00,46.9,15.6,24.95,ESE,114,0.0,0.0,28,0.00,,---,0.00,VWS V14.01,2013-10-22 02:18:00,
2013-10-21 21:20:00,46.9,15.6,24.95,ESE,114,0.0,0.0,28,0.00,,---,0.00,VWS V14.01,2013-10-22 02:20:00,
2013-10-21 21:21:00,46.9,15.6,24.95,ESE,114,0.0,0.0,28,0.00,,---,0.00,VWS V14.01,2013-10-22 02:21:00,
2013-10-21 21:24:00,46.9,15.6,24.95,ESE,114,0.0,0.0,28,0.00,,---,0.00,VWS V14.01,2013-10-22 02:24:00,
2013-10-21 21:25:00,46.9,15.6,24.95,ESE,114,0.0,0.0,28,0.00,,---,0.00,VWS V14.01,2013-10-22 02:25:00,
2013-10-21 21:26:00,46.9,16.4,24.95,ESE,114,0.0,0.0,29,0.00,,---,0.00,VWS V14.01,2013-10-22 02:26:00,
2013-10-21 21:27:00,46.9,16.4,24.95,ESE,114,0.0,0.0,29,0.00,,---,0.00,VWS V14.01,2013-10-22 02:27:00,
2013-10-21 21:29:00,46.9,16.4,24.95,ESE,114,0.0,0.0,29,0.00,,---,0.00,VWS V14.01,2013-10-22 02:29:00,
2013-10-21 21:30:00,46.9,16.4,24.95,ESE,114,0.0,0.0,29,0.00,,---,0.00,VWS V14.01,2013-10-22 02:30:00,
2013-10-21 21:31:00,46.9,16.4,24.95,ESE,114,0.0,0.0,29,0.00,,---,0.00,VWS V14.01,2013-10-22 02:31:00,
2013-10-21 21:32:00,46.9,16.4,24.95,ESE,114,0.0,0.0,29,0.00,,---,0.00,VWS V14.01,2013-10-22 02:32:00,
2013-10-21 21:35:00,46.9,16.4,24.95,ESE,114,0.0,0.0,29,0.00,,---,0.00,VWS V14.01,2013-10-22 02:35:00,
2013-10-21 21:36:00,46.4,15.9,24.95,ESE,114,0.0,0.0,29,0.00,,---,0.00,VWS V14.01,2013-10-22 02:36:00,
2013-10-21 21:37:00,46.4,15.9,24.95,ESE,114,0.0,0.0,29,0.00,,---,0.00,VWS V14.01,2013-10-22 02:37:00,
2013-10-21 21:40:00,46.4,15.9,24.95,ESE,114,0.0,0.0,29,0.00,,---,0.00,VWS V14.01,2013-10-22 02:40:00,
2013-10-21 21:41:00,46.4,15.9,24.95,ESE,114,0.0,0.0,29,0.00,,---,0.00,VWS V14.01,2013-10-22 02:41:00,
2013-10-21 21:42:00,46.4,15.9,24.95,ESE,114,0.0,0.0,29,0.00,,---,0.00,VWS V14.01,2013-10-22 02:42:00,
2013-10-21 21:43:00,46.4,15.9,24.95,ESE,114,0.0,0.0,29,0.00,,---,0.00,VWS V14.01,2013-10-22 02:43:00,
2013-10-21 21:45:00,46.0,16.4,24.95,ESE,114,0.0,0.0,30,0.00,,---,0.00,VWS V14.01,2013-10-22 02:45:00,
2013-10-21 21:46:00,46.0,16.4,24.95,ESE,114,0.0,0.0,30,0.00,,---,0.00,VWS V14.01,2013-10-22 02:46:00,
2013-10-21 21:47:00,46.0,16.4,24.95,ESE,114,0.0,0.0,30,0.00,,---,0.00,VWS V14.01,2013-10-22 02:47:00,
2013-10-21 21:48:00,46.0,16.4,24.95,ESE,114,0.0,0.0,30,0.00,,---,0.00,VWS V14.01,2013-10-22 02:48:00,
2013-10-21 21:51:00,45.9,16.2,24.95,ESE,114,0.0,0.0,30,0.00,,---,0.00,VWS V14.01,2013-10-22 02:51:00,
2013-10-21 21:52:00,45.9,16.2,24.95,ESE,114,0.0,0.0,30,0.00,,---,0.00,VWS V14.01,2013-10-22 02:52:00,
2013-10-21 21:54:00,45.9,16.2,24.95,ESE,114,0.0,0.0,30,0.00,,---,0.00,VWS V14.01,2013-10-22 02:54:00,
2013-10-21 21:56:00,45.9,16.2,24.95,ESE,114,0.0,0.0,30,0.00,,---,0.00,VWS V14.01,2013-10-22 02:56:00,
2013-10-21 21:57:00,45.9,16.2,24.95,ESE,114,0.0,0.0,30,0.00,,---,0.00,VWS V14.01,2013-10-22 02:57:00,
2013-10-21 21:59:00,45.3,16.5,24.95,ESE,114,0.0,0.0,31,0.00,,---,0.00,VWS V14.01,2013-10-22 02:59:00,
2013-10-21 22:01:00,45.3,16.5,24.95,ESE,114,0.0,0.0,31,0.00,,---,0.00,VWS V14.01,2013-10-22 03:01:00,
2013-10-21 22:02:00,45.3,16.5,24.95,ESE,114,0.0,0.0,31,0.00,,---,0.00,VWS V14.01,2013-10-22 03:02:00,
2013-10-21 22:03:00,45.3,16.5,24.95,ESE,114,0.0,0.0,31,0.00,,---,0.00,VWS V14.01,2013-10-22 03:03:00,
2013-10-21 22:04:00,45.3,16.5,24.95,ESE,114,0.0,0.0,31,0.00,,---,0.00,VWS V14.01,2013-10-22 03:04:00,
2013-10-21 22:06:00,45.3,16.5,24.98,ESE,114,0.0,0.0,31,0.00,,---,0.00,VWS V14.01,2013-10-22 03:06:00,
2013-10-21 22:07:00,45.0,16.9,24.98,ESE,114,0.0,0.0,32,0.00,,---,0.00,VWS V14.01,2013-10-22 03:07:00,
2013-10-21 22:08:00,45.0,16.9,24.98,ESE,114,0.0,0.0,32,0.00,,---,0.00,VWS V14.01,2013-10-22 03:08:00,
2013-10-21 22:09:00,45.0,16.9,24.98,ESE,114,0.0,0.0,32,0.00,,---,0.00,VWS V14.01,2013-10-22 03:09:00,
2013-10-21 22:10:00,45.0,16.9,24.98,ESE,114,0.0,0.0,32,0.00,,---,0.00,VWS V14.01,2013-10-22 03:10:00,
2013-10-21 22:11:00,45.0,16.9,24.98,ESE,114,0.0,0.0,32,0.00,,---,0.00,VWS V14.01,2013-10-22 03:11:00,
2013-10-21 22:12:00,45.0,16.9,24.98,ESE,114,0.0,0.0,32,0.00,,---,0.00,VWS V14.01,2013-10-22 03:12:00,
2013-10-21 22:13:00,45.0,16.9,24.98,ESE,114,0.0,0.0,32,0.00,,---,0.00,VWS V14.01,2013-10-22 03:13:00,
2013-10-21 22:14:00,45.0,16.9,24.98,ESE,114,0.0,0.0,32,0.00,,---,0.00,VWS V14.01,2013-10-22 03:14:00,
2013-10-21 22:15:00,45.0,16.9,24.98,ESE,114,0.0,0.0,32,0.00,,---,0.00,VWS V14.01,2013-10-22 03:15:00,
2013-10-21 22:17:00,44.8,17.5,24.98,ESE,114,0.0,0.0,33,0.00,,---,0.00,VWS V14.01,2013-10-22 03:17:00,
2013-10-21 22:18:00,44.8,17.5,24.98,ESE,114,0.0,0.0,33,0.00,,---,0.00,VWS V14.01,2013-10-22 03:18:00,
2013-10-21 22:19:00,44.8,17.5,24.98,ESE,114,0.0,0.0,33,0.00,,---,0.00,VWS V14.01,2013-10-22 03:19:00,
2013-10-21 22:20:00,44.8,17.5,24.98,ESE,114,0.0,0.0,33,0.00,,---,0.00,VWS V14.01,2013-10-22 03:20:00,
2013-10-21 22:22:00,44.8,17.5,24.98,ESE,114,0.0,0.0,33,0.00,,---,0.00,VWS V14.01,2013-10-22 03:22:00,
2013-10-21 22:23:00,44.8,17.5,24.98,ESE,114,0.0,0.0,33,0.00,,---,0.00,VWS V14.01,2013-10-22 03:23:00,
2013-10-21 22:24:00,44.8,17.5,24.98,ESE,114,0.0,0.0,33,0.00,,---,0.00,VWS V14.01,2013-10-22 03:24:00,
2013-10-21 22:25:00,44.8,17.5,24.98,ESE,114,0.0,0.0,33,0.00,,---,0.00,VWS V14.01,2013-10-22 03:25:00,
2013-10-21 22:27:00,44.8,17.5,24.98,ESE,114,0.0,0.0,33,0.00,,---,0.00,VWS V14.01,2013-10-22 03:27:00,
2013-10-21 22:28:00,44.8,17.5,24.98,ESE,114,0.0,0.0,33,0.00,,---,0.00,VWS V14.01,2013-10-22 03:28:00,
2013-10-21 22:30:00,44.8,17.5,24.98,ESE,114,0.0,0.0,33,0.00,,---,0.00,VWS V14.01,2013-10-22 03:30:00,
2013-10-21 22:31:00,44.8,17.5,24.98,ESE,114,0.0,0.0,33,0.00,,---,0.00,VWS V14.01,2013-10-22 03:31:00,
2013-10-21 22:32:00,44.8,17.5,24.98,ESE,114,0.0,0.0,33,0.00,,---,0.00,VWS V14.01,2013-10-22 03:32:00,
2013-10-21 22:33:00,44.8,17.5,24.98,ESE,114,0.0,0.0,33,0.00,,---,0.00,VWS V14.01,2013-10-22 03:33:00,
2013-10-21 22:34:00,44.8,17.5,24.98,ESE,114,0.0,0.0,33,0.00,,---,0.00,VWS V14.01,2013-10-22 03:34:00,
2013-10-21 22:35:00,44.8,17.5,24.98,ESE,114,0.0,0.0,33,0.00,,---,0.00,VWS V14.01,2013-10-22 03:35:00,
2013-10-21 22:36:00,44.8,17.5,24.98,ESE,114,0.0,0.0,33,0.00,,---,0.00,VWS V14.01,2013-10-22 03:36:00,
2013-10-21 22:37:00,44.8,17.5,24.98,ESE,114,0.0,0.0,33,0.00,,---,0.00,VWS V14.01,2013-10-22 03:37:00,
2013-10-21 22:38:00,44.8,17.5,24.98,ESE,114,0.0,0.0,33,0.00,,---,0.00,VWS V14.01,2013-10-22 03:38:00,
2013-10-21 22:39:00,44.8,17.5,24.98,ESE,114,0.0,0.0,33,0.00,,---,0.00,VWS V14.01,2013-10-22 03:39:00,
2013-10-21 22:40:00,44.8,17.5,24.98,ESE,114,0.0,0.0,33,0.00,,---,0.00,VWS V14.01,2013-10-22 03:40:00,
2013-10-21 22:41:00,44.8,17.5,24.98,ESE,114,0.0,0.0,33,0.00,,---,0.00,VWS V14.01,2013-10-22 03:41:00,
2013-10-21 22:43:00,44.8,17.5,24.98,ESE,114,0.0,0.0,33,0.00,,---,0.00,VWS V14.01,2013-10-22 03:43:00,
2013-10-21 22:44:00,44.8,17.5,24.98,ESE,114,0.0,0.0,33,0.00,,---,0.00,VWS V14.01,2013-10-22 03:44:00,
2013-10-21 22:46:00,44.4,19.1,24.98,ESE,114,0.0,0.0,36,0.00,,---,0.00,VWS V14.01,2013-10-22 03:46:00,
2013-10-21 22:48:00,44.4,19.1,24.98,ESE,114,0.0,0.0,36,0.00,,---,0.00,VWS V14.01,2013-10-22 03:48:00,
2013-10-21 22:49:00,44.4,19.1,24.98,ESE,114,0.0,0.0,36,0.00,,---,0.00,VWS V14.01,2013-10-22 03:49:00,
2013-10-21 22:51:00,44.4,19.1,24.98,ESE,114,0.0,0.0,36,0.00,,---,0.00,VWS V14.01,2013-10-22 03:51:00,
2013-10-21 22:53:00,44.4,19.1,24.98,ESE,114,0.0,0.0,36,0.00,,---,0.00,VWS V14.01,2013-10-22 03:53:00,
2013-10-21 22:54:00,44.4,19.1,24.98,ESE,114,0.0,0.0,36,0.00,,---,0.00,VWS V14.01,2013-10-22 03:54:00,
2013-10-21 22:55:00,44.4,19.1,24.98,ESE,114,0.0,0.0,36,0.00,,---,0.00,VWS V14.01,2013-10-22 03:55:00,
2013-10-21 22:56:00,44.4,19.1,24.98,ESE,114,0.0,0.0,36,0.00,,---,0.00,VWS V14.01,2013-10-22 03:56:00,
2013-10-21 22:58:00,44.4,19.1,24.98,ESE,114,0.0,0.0,36,0.00,,---,0.00,VWS V14.01,2013-10-22 03:58:00,
2013-10-21 22:59:00,44.4,19.1,24.98,ESE,114,0.0,0.0,36,0.00,,---,0.00,VWS V14.01,2013-10-22 03:59:00,
2013-10-21 23:00:00,44.4,19.1,24.98,ESE,114,0.0,0.0,36,0.00,,---,0.00,VWS V14.01,2013-10-22 04:00:00,
2013-10-21 23:01:00,44.4,19.1,24.98,ESE,114,0.0,0.0,36,0.00,,---,0.00,VWS V14.01,2013-10-22 04:01:00,
2013-10-21 23:06:00,44.4,19.1,24.98,ESE,114,0.0,0.0,36,0.00,,---,0.00,VWS V14.01,2013-10-22 04:06:00,
2013-10-21 23:07:00,43.3,19.5,24.98,ESE,114,0.0,0.0,38,0.00,,---,0.00,VWS V14.01,2013-10-22 04:07:00,
2013-10-21 23:11:00,43.2,19.3,24.98,ESE,114,0.0,0.0,38,0.00,,---,0.00,VWS V14.01,2013-10-22 04:11:00,
2013-10-21 23:12:00,43.2,19.3,24.98,ESE,114,0.0,0.0,38,0.00,,---,0.00,VWS V14.01,2013-10-22 04:12:00,
2013-10-21 23:16:00,43.2,19.3,24.98,ESE,114,0.0,0.0,38,0.00,,---,0.00,VWS V14.01,2013-10-22 04:16:00,
2013-10-21 23:17:00,43.2,19.3,24.98,ESE,114,0.0,0.0,38,0.00,,---,0.00,VWS V14.01,2013-10-22 04:17:00,
2013-10-21 23:21:00,43.2,19.3,24.98,ESE,114,0.0,0.0,38,0.00,,---,0.00,VWS V14.01,2013-10-22 04:21:00,
2013-10-21 23:22:00,43.2,19.3,24.98,ESE,114,0.0,0.0,38,0.00,,---,0.00,VWS V14.01,2013-10-22 04:22:00,
2013-10-21 23:23:00,43.2,19.3,24.98,ESE,114,0.0,0.0,38,0.00,,---,0.00,VWS V14.01,2013-10-22 04:23:00,
2013-10-21 23:26:00,43.2,19.3,24.98,ESE,114,0.0,0.0,38,0.00,,---,0.00,VWS V14.01,2013-10-22 04:26:00,
2013-10-21 23:27:00,43.2,19.3,24.98,ESE,114,0.0,0.0,38,0.00,,---,0.00,VWS V14.01,2013-10-22 04:27:00,
2013-10-21 23:28:00,43.2,19.3,24.98,ESE,114,0.0,0.0,38,0.00,,---,0.00,VWS V14.01,2013-10-22 04:28:00,
2013-10-21 23:32:00,43.2,19.3,24.98,ESE,114,0.0,0.0,38,0.00,,---,0.00,VWS V14.01,2013-10-22 04:32:00,
2013-10-21 23:33:00,41.9,18.8,24.98,ESE,114,0.0,0.0,39,0.00,,---,0.00,VWS V14.01,2013-10-22 04:33:00,
2013-10-21 23:37:00,41.9,18.8,24.98,ESE,114,0.0,0.0,39,0.00,,---,0.00,VWS V14.01,2013-10-22 04:37:00,
2013-10-21 23:38:00,41.9,18.8,24.98,ESE,114,0.0,0.0,39,0.00,,---,0.00,VWS V14.01,2013-10-22 04:38:00,
2013-10-21 23:42:00,41.9,18.8,24.98,ESE,114,0.0,0.0,39,0.00,,---,0.00,VWS V14.01,2013-10-22 04:42:00,
2013-10-21 23:43:00,41.2,18.1,24.98,ESE,114,0.0,0.0,39,0.00,,---,0.00,VWS V14.01,2013-10-22 04:43:00,
2013-10-21 23:44:00,41.2,18.1,24.98,ESE,114,0.0,0.0,39,0.00,,---,0.00,VWS V14.01,2013-10-22 04:44:00,
2013-10-21 23:47:00,41.2,18.1,24.98,ESE,114,0.0,0.0,39,0.00,,---,0.00,VWS V14.01,2013-10-22 04:47:00,
2013-10-21 23:48:00,41.2,18.1,24.98,ESE,114,0.0,0.0,39,0.00,,---,0.00,VWS V14.01,2013-10-22 04:48:00,
2013-10-21 23:50:00,41.2,18.1,24.98,ESE,114,0.0,0.0,39,0.00,,---,0.00,VWS V14.01,2013-10-22 04:50:00,
2013-10-21 23:52:00,41.2,18.1,24.98,ESE,114,0.0,0.0,39,0.00,,---,0.00,VWS V14.01,2013-10-22 04:52:00,
2013-10-21 23:53:00,41.2,18.1,24.98,ESE,114,0.0,0.0,39,0.00,,---,0.00,VWS V14.01,2013-10-22 04:53:00,
2013-10-21 23:55:00,41.2,18.1,24.98,ESE,114,0.0,0.0,39,0.00,,---,0.00,VWS V14.01,2013-10-22 04:55:00,
2013-10-21 23:57:00,40.8,18.4,24.98,ESE,114,0.0,0.0,40,0.00,,---,0.00,VWS V14.01,2013-10-22 04:57:00,
2013-10-21 23:58:00,40.8,18.4,24.98,ESE,114,0.0,0.0,40,0.00,,---,0.00,VWS V14.01,2013-10-22 04:58:00,
2013-10-21 23:59:00,40.8,18.4,24.98,ESE,114,0.0,0.0,40,0.00,,---,0.00,VWS V14.01,2013-10-22 04:59:00,